Wetterdaten: Montag, 27.03.2017
Datum Zeit Temp. Aussen Temp. o. S. +5cm Feuchte Auss BlattFeu 1 Luftdruck Regen Sonnenschein Regendauer Solar Windben Empfang
27.03.2017 00:00 9,1 C 7,8 C 4,4 C 74 % 0 lf 1023,0 hPa 0,0 l/m 0 min 0 min 0 W/m 12,6 km/h (3 Bft) 95,74 %
27.03.2017 00:02 9,1 C 7,8 C 4,4 C 74 % 0 lf 1023,1 hPa 0,0 l/m 0 min 0 min 0 W/m 10,5 km/h (2 Bft) 89,19 %
27.03.2017 00:04 9,0 C 8,3 C 5,0 C 74 % 0 lf 1023,0 hPa 0,0 l/m 0 min 0 min 0 W/m 10,5 km/h (2 Bft) 89,36 %
27.03.2017 00:06 8,9 C 8,3 C 5,0 C 74 % 0 lf 1023,0 hPa 0,0 l/m 0 min 0 min 0 W/m 8,4 km/h (2 Bft) 89,13 %
27.03.2017 00:10 8,8 C 8,3 C 5,0 C 75 % 0 lf 1023,0 hPa 0,0 l/m 0 min 0 min 0 W/m 12,6 km/h (3 Bft) 88,54 %
27.03.2017 00:12 8,8 C 8,9 C 5,6 C 75 % 0 lf 1023,0 hPa 0,0 l/m 0 min 0 min 1 W/m 14,6 km/h (3 Bft) 89,13 %
27.03.2017 00:14 8,8 C 8,9 C 5,6 C 75 % 0 lf 1023,0 hPa 0,0 l/m 0 min 0 min 5 W/m 14,6 km/h (3 Bft) 100,00 %
27.03.2017 00:16 8,7 C 8,9 C 5,6 C 75 % 0 lf 1023,0 hPa 0,0 l/m 0 min 0 min 0 W/m 10,5 km/h (2 Bft) 93,62 %
27.03.2017 00:18 8,7 C 8,3 C 5,6 C 75 % 0 lf 1023,0 hPa 0,0 l/m 0 min 0 min 0 W/m 12,6 km/h (3 Bft) 95,74 %
27.03.2017 00:20 8,7 C 8,3 C 5,6 C 76 % 0 lf 1023,0 hPa 0,0 l/m 0 min 0 min 0 W/m 12,6 km/h (3 Bft) 97,87 %
27.03.2017 00:22 8,7 C 8,3 C 5,6 C 76 % 0 lf 1023,0 hPa 0,0 l/m 0 min 0 min 0 W/m 8,4 km/h (2 Bft) 91,49 %
27.03.2017 00:24 8,7 C 8,3 C 5,6 C 76 % 0 lf 1023,0 hPa 0,0 l/m 0 min 0 min 0 W/m 8,4 km/h (2 Bft) 89,13 %
27.03.2017 00:26 8,7 C 8,3 C 5,6 C 76 % 0 lf 1023,0 hPa 0,0 l/m 0 min 0 min 5 W/m 10,5 km/h (2 Bft) 93,62 %
27.03.2017 00:28 8,6 C 8,3 C 5,0 C 76 % 0 lf 1022,9 hPa 0,0 l/m 0 min 0 min 5 W/m 8,4 km/h (2 Bft) 95,74 %
27.03.2017 00:30 8,6 C 8,3 C 5,6 C 76 % 0 lf 1023,0 hPa 0,0 l/m 0 min 0 min 0 W/m 10,5 km/h (2 Bft) 89,36 %
27.03.2017 00:32 8,6 C 8,3 C 5,0 C 76 % 0 lf 1022,9 hPa 0,0 l/m 0 min 0 min 0 W/m 6,3 km/h (2 Bft) 95,74 %
27.03.2017 00:34 8,6 C 8,3 C 5,0 C 76 % 0 lf 1022,9 hPa 0,0 l/m 0 min 0 min 0 W/m 6,3 km/h (2 Bft) 93,62 %
27.03.2017 00:36 8,6 C 8,3 C 5,0 C 76 % 0 lf 1022,9 hPa 0,0 l/m 0 min 0 min 0 W/m 6,3 km/h (2 Bft) 89,13 %
27.03.2017 00:38 8,6 C 7,8 C 4,4 C 76 % 0 lf 1022,9 hPa 0,0 l/m 0 min 0 min 0 W/m 6,3 km/h (2 Bft) 95,74 %
27.03.2017 00:40 8,5 C 7,8 C 4,4 C 76 % 0 lf 1022,9 hPa 0,0 l/m 0 min 0 min 0 W/m 4,2 km/h (1 Bft) 97,87 %
27.03.2017 00:42 8,5 C 7,8 C 3,9 C 76 % 0 lf 1022,9 hPa 0,0 l/m 0 min 0 min 0 W/m 2,1 km/h (1 Bft) 91,49 %
27.03.2017 00:44 8,4 C 7,2 C 3,9 C 76 % 0 lf 1022,9 hPa 0,0 l/m 0 min 0 min 3 W/m 4,2 km/h (1 Bft) 97,87 %
27.03.2017 00:46 8,4 C 7,2 C 3,9 C 75 % 0 lf 1022,9 hPa 0,0 l/m 0 min 0 min 0 W/m 4,2 km/h (1 Bft) 91,49 %
27.03.2017 00:48 8,4 C 6,7 C 3,3 C 75 % 0 lf 1022,9 hPa 0,0 l/m 0 min 0 min 0 W/m 2,1 km/h (1 Bft) 91,30 %
27.03.2017 00:50 8,4 C 6,7 C 3,3 C 75 % 0 lf 1022,9 hPa 0,0 l/m 0 min 0 min 0 W/m 4,2 km/h (1 Bft) 91,49 %
27.03.2017 00:52 8,3 C 6,7 C 3,3 C 75 % 0 lf 1022,9 hPa 0,0 l/m 0 min 0 min 0 W/m 2,1 km/h (1 Bft) 93,62 %
27.03.2017 00:54 8,3 C 6,1 C 3,3 C 75 % 0 lf 1022,9 hPa 0,0 l/m 0 min 0 min 0 W/m 2,1 km/h (1 Bft) 95,74 %
27.03.2017 00:56 8,2 C 6,1 C 3,3 C 75 % 0 lf 1022,9 hPa 0,0 l/m 0 min 0 min 0 W/m 2,1 km/h (1 Bft) 97,87 %
27.03.2017 00:58 8,2 C 6,1 C 3,3 C 75 % 0 lf 1022,9 hPa 0,0 l/m 0 min 0 min 0 W/m 4,2 km/h (1 Bft) 93,62 %
27.03.2017 01:00 8,2 C 6,1 C 3,3 C 75 % 0 lf 1022,9 hPa 0,0 l/m 0 min 0 min 0 W/m 4,2 km/h (1 Bft) 97,83 %
27.03.2017 01:02 8,1 C 5,6 C 3,3 C 75 % 0 lf 1022,9 hPa 0,0 l/m 0 min 0 min 0 W/m 8,4 km/h (2 Bft) 95,74 %
27.03.2017 01:04 8,1 C 6,1 C 3,3 C 75 % 0 lf 1022,9 hPa 0,0 l/m 0 min 0 min 0 W/m 8,4 km/h (2 Bft) 89,36 %
27.03.2017 01:06 8,0 C 6,1 C 3,3 C 75 % 0 lf 1022,9 hPa 0,0 l/m 0 min 0 min 0 W/m 6,3 km/h (2 Bft) 89,36 %
27.03.2017 01:08 7,9 C 6,1 C 3,3 C 75 % 0 lf 1022,9 hPa 0,0 l/m 0 min 0 min 5 W/m 6,3 km/h (2 Bft) 89,36 %
27.03.2017 01:10 7,9 C 6,1 C 2,8 C 75 % 0 lf 1022,9 hPa 0,0 l/m 0 min 0 min 5 W/m 6,3 km/h (2 Bft) 91,30 %
27.03.2017 01:12 7,8 C 6,1 C 2,8 C 76 % 0 lf 1022,9 hPa 0,0 l/m 0 min 0 min 0 W/m 4,2 km/h (1 Bft) 95,74 %
27.03.2017 01:14 7,8 C 5,6 C 2,8 C 76 % 0 lf 1022,9 hPa 0,0 l/m 0 min 0 min 0 W/m 4,2 km/h (1 Bft) 97,87 %
27.03.2017 01:16 7,7 C 5,6 C 2,8 C 76 % 0 lf 1022,9 hPa 0,0 l/m 0 min 0 min 0 W/m 6,3 km/h (2 Bft) 100,00 %
27.03.2017 01:18 7,7 C 5,6 C 2,8 C 76 % 0 lf 1022,9 hPa 0,0 l/m 0 min 0 min 0 W/m 4,2 km/h (1 Bft) 97,87 %
27.03.2017 01:20 7,6 C 5,6 C 2,8 C 76 % 0 lf 1022,8 hPa 0,0 l/m 0 min 0 min 0 W/m 6,3 km/h (2 Bft) 100,00 %
27.03.2017 01:22 7,6 C 6,1 C 2,8 C 76 % 0 lf 1022,9 hPa 0,0 l/m 0 min 0 min 0 W/m 4,2 km/h (1 Bft) 100,00 %
27.03.2017 01:24 7,6 C 5,6 C 2,8 C 76 % 0 lf 1022,9 hPa 0,0 l/m 0 min 0 min 0 W/m 2,1 km/h (1 Bft) 93,62 %
27.03.2017 01:26 7,5 C 5,6 C 2,8 C 76 % 0 lf 1022,9 hPa 0,0 l/m 0 min 0 min 0 W/m 2,1 km/h (1 Bft) 91,49 %
27.03.2017 01:28 7,4 C 5,6 C 2,8 C 76 % 0 lf 1022,8 hPa 0,0 l/m 0 min 0 min 0 W/m 2,1 km/h (1 Bft) 93,62 %
27.03.2017 01:30 7,4 C 5,6 C 2,8 C 76 % 0 lf 1022,9 hPa 0,0 l/m 0 min 0 min 0 W/m 4,2 km/h (1 Bft) 72,34 %
27.03.2017 01:32 7,3 C 5,6 C 2,2 C 76 % 0 lf 1022,9 hPa 0,0 l/m 0 min 0 min 5 W/m 4,2 km/h (1 Bft) 93,62 %
27.03.2017 01:34 7,3 C 5,0 C 2,2 C 76 % 0 lf 1022,9 hPa 0,0 l/m 0 min 0 min 0 W/m 4,2 km/h (1 Bft) 91,30 %
27.03.2017 01:36 7,2 C 5,0 C 2,2 C 76 % 0 lf 1022,9 hPa 0,0 l/m 0 min 0 min 0 W/m 2,1 km/h (1 Bft) 87,23 %
27.03.2017 01:38 7,2 C 5,0 C 2,2 C 76 % 0 lf 1022,9 hPa 0,0 l/m 0 min 0 min 0 W/m 0,0 km/h (0 Bft) 95,74 %
27.03.2017 01:40 7,2 C 5,0 C 2,2 C 76 % 0 lf 1022,9 hPa 0,0 l/m 0 min 0 min 0 W/m 0,0 km/h (0 Bft) 82,98 %
27.03.2017 01:42 7,1 C 5,0 C 2,2 C 76 % 0 lf 1022,9 hPa 0,0 l/m 0 min 0 min 0 W/m 0,0 km/h (0 Bft) 72,34 %
27.03.2017 01:44 7,1 C 5,0 C 2,2 C 76 % 0 lf 1022,9 hPa 0,0 l/m 0 min 0 min 0 W/m 0,0 km/h (0 Bft) 78,72 %
27.03.2017 01:46 6,9 C 5,0 C 2,2 C 77 % 0 lf 1022,9 hPa 0,0 l/m 0 min 0 min 0 W/m 0,0 km/h (0 Bft) 73,91 %
27.03.2017 01:48 6,9 C 4,4 C 2,2 C 77 % 0 lf 1022,9 hPa 0,0 l/m 0 min 0 min 5 W/m 0,0 km/h (0 Bft) 68,09 %
27.03.2017 01:50 6,9 C 4,4 C 2,2 C 77 % 0 lf 1022,9 hPa 0,0 l/m 0 min 0 min 0 W/m 2,1 km/h (1 Bft) 74,47 %
27.03.2017 01:52 6,8 C 4,4 C 2,2 C 77 % 0 lf 1022,9 hPa 0,0 l/m 0 min 0 min 0 W/m 2,1 km/h (1 Bft) 74,47 %
27.03.2017 01:54 6,7 C 4,4 C 2,2 C 77 % 0 lf 1022,9 hPa 0,0 l/m 0 min 0 min 0 W/m 4,2 km/h (1 Bft) 78,72 %
27.03.2017 01:56 6,7 C 4,4 C 2,2 C 77 % 0 lf 1022,8 hPa 0,0 l/m 0 min 0 min 0 W/m 4,2 km/h (1 Bft) 80,43 %
27.03.2017 01:58 6,6 C 4,4 C 2,2 C 78 % 0 lf 1022,8 hPa 0,0 l/m 0 min 0 min 3 W/m 4,2 km/h (1 Bft) 91,49 %
27.03.2017 02:00 6,6 C 4,4 C 2,2 C 78 % 0 lf 1022,8 hPa 0,0 l/m 0 min 0 min 5 W/m 0,0 km/h (0 Bft) 91,49 %
27.03.2017 02:02 6,6 C 4,4 C 2,2 C 78 % 0 lf 1022,9 hPa 0,0 l/m 0 min 0 min 5 W/m 0,0 km/h (0 Bft) 89,36 %
27.03.2017 02:04 6,5 C 4,4 C 2,2 C 78 % 0 lf 1022,9 hPa 0,0 l/m 0 min 0 min 0 W/m 0,0 km/h (0 Bft) 97,87 %
27.03.2017 02:06 6,4 C 4,4 C 2,2 C 78 % 0 lf 1022,9 hPa 0,0 l/m 0 min 0 min 0 W/m 0,0 km/h (0 Bft) 97,87 %
27.03.2017 02:08 6,4 C 4,4 C 2,2 C 79 % 0 lf 1022,9 hPa 0,0 l/m 0 min 0 min 0 W/m 0,0 km/h (0 Bft) 95,65 %
27.03.2017 02:10 6,3 C 4,4 C 2,2 C 79 % 0 lf 1022,9 hPa 0,0 l/m 0 min 0 min 0 W/m 0,0 km/h (0 Bft) 93,62 %
27.03.2017 02:12 6,3 C 4,4 C 2,2 C 79 % 0 lf 1022,9 hPa 0,0 l/m 0 min 0 min 0 W/m 0,0 km/h (0 Bft) 97,87 %
27.03.2017 02:14 6,2 C 4,4 C 2,2 C 79 % 0 lf 1022,9 hPa 0,0 l/m 0 min 0 min 0 W/m 0,0 km/h (0 Bft) 97,87 %
27.03.2017 02:16 6,2 C 4,4 C 2,2 C 79 % 0 lf 1022,9 hPa 0,0 l/m 0 min 0 min 0 W/m 0,0 km/h (0 Bft) 89,36 %
27.03.2017 02:18 6,2 C 3,9 C 1,7 C 79 % 0 lf 1023,0 hPa 0,0 l/m 0 min 0 min 0 W/m 0,0 km/h (0 Bft) 93,62 %
27.03.2017 02:20 6,1 C 3,9 C 1,7 C 79 % 0 lf 1022,9 hPa 0,0 l/m 0 min 0 min 0 W/m 0,0 km/h (0 Bft) 80,43 %
27.03.2017 02:22 6,1 C 3,9 C 1,7 C 79 % 0 lf 1022,9 hPa 0,0 l/m 0 min 0 min 0 W/m 0,0 km/h (0 Bft) 74,47 %
27.03.2017 02:24 6,0 C 3,9 C 1,7 C 79 % 0 lf 1022,9 hPa 0,0 l/m 0 min 0 min 0 W/m 0,0 km/h (0 Bft) 78,72 %
27.03.2017 02:26 6,0 C 3,9 C 1,7 C 79 % 0 lf 1023,0 hPa 0,0 l/m 0 min 0 min 5 W/m 0,0 km/h (0 Bft) 76,60 %
27.03.2017 02:28 5,9 C 3,9 C 1,7 C 80 % 0 lf 1023,0 hPa 0,0 l/m 0 min 0 min 0 W/m 0,0 km/h (0 Bft) 87,23 %
27.03.2017 02:30 5,9 C 3,9 C 1,7 C 80 % 0 lf 1023,0 hPa 0,0 l/m 0 min 0 min 0 W/m 0,0 km/h (0 Bft) 85,11 %
27.03.2017 02:32 5,8 C 3,9 C 1,7 C 80 % 0 lf 1023,0 hPa 0,0 l/m 0 min 0 min 0 W/m 0,0 km/h (0 Bft) 89,13 %
27.03.2017 02:34 5,8 C 3,9 C 1,7 C 80 % 0 lf 1022,9 hPa 0,0 l/m 0 min 0 min 0 W/m 0,0 km/h (0 Bft) 89,36 %
27.03.2017 02:36 5,8 C 3,9 C 1,7 C 80 % 0 lf 1022,9 hPa 0,0 l/m 0 min 0 min 4 W/m 0,0 km/h (0 Bft) 89,36 %
27.03.2017 02:38 5,7 C 3,9 C 1,7 C 80 % 0 lf 1022,9 hPa 0,0 l/m 0 min 0 min 0 W/m 0,0 km/h (0 Bft) 82,98 %
27.03.2017 02:40 5,7 C 3,9 C 1,7 C 80 % 0 lf 1022,9 hPa 0,0 l/m 0 min 0 min 5 W/m 0,0 km/h (0 Bft) 72,34 %
27.03.2017 02:42 5,6 C 3,9 C 1,7 C 80 % 0 lf 1022,9 hPa 0,0 l/m 0 min 0 min 5 W/m 0,0 km/h (0 Bft) 70,21 %
27.03.2017 02:44 5,6 C 3,9 C 1,7 C 80 % 0 lf 1022,9 hPa 0,0 l/m 0 min 0 min 5 W/m 0,0 km/h (0 Bft) 78,26 %
27.03.2017 02:46 5,6 C 3,9 C 1,7 C 80 % 0 lf 1022,9 hPa 0,0 l/m 0 min 0 min 5 W/m 0,0 km/h (0 Bft) 70,21 %
27.03.2017 02:48 5,5 C 3,3 C 1,7 C 80 % 0 lf 1022,9 hPa 0,0 l/m 0 min 0 min 5 W/m 0,0 km/h (0 Bft) 82,98 %
27.03.2017 02:50 5,5 C 3,3 C 1,7 C 81 % 0 lf 1022,9 hPa 0,0 l/m 0 min 0 min 0 W/m 0,0 km/h (0 Bft) 85,11 %
27.03.2017 02:52 5,4 C 3,3 C 1,7 C 81 % 0 lf 1022,9 hPa 0,0 l/m 0 min 0 min 0 W/m 0,0 km/h (0 Bft) 80,85 %
27.03.2017 02:54 5,4 C 3,3 C 1,7 C 81 % 0 lf 1022,9 hPa 0,0 l/m 0 min 0 min 0 W/m 0,0 km/h (0 Bft) 89,36 %
27.03.2017 02:56 5,4 C 3,3 C 1,7 C 81 % 0 lf 1022,9 hPa 0,0 l/m 0 min 0 min 0 W/m 2,1 km/h (1 Bft) 86,96 %
27.03.2017 02:58 5,3 C 3,3 C 1,7 C 81 % 0 lf 1022,9 hPa 0,0 l/m 0 min 0 min 0 W/m 2,1 km/h (1 Bft) 78,72 %
27.03.2017 03:00 5,3 C 3,3 C 1,7 C 81 % 0 lf 1023,0 hPa 0,0 l/m 0 min 0 min 0 W/m 0,0 km/h (0 Bft) 87,23 %
27.03.2017 03:02 5,3 C 3,3 C 1,7 C 81 % 0 lf 1022,9 hPa 0,0 l/m 0 min 0 min 0 W/m 2,1 km/h (1 Bft) 82,98 %
27.03.2017 03:04 5,2 C 3,3 C 1,1 C 81 % 0 lf 1023,0 hPa 0,0 l/m 0 min 0 min 0 W/m 2,1 km/h (1 Bft) 89,36 %
27.03.2017 03:06 5,2 C 3,3 C 1,1 C 81 % 0 lf 1022,9 hPa 0,0 l/m 0 min 0 min 0 W/m 2,1 km/h (1 Bft) 91,30 %
27.03.2017 03:08 5,1 C 3,3 C 1,7 C 81 % 0 lf 1023,0 hPa 0,0 l/m 0 min 0 min 5 W/m 0,0 km/h (0 Bft) 89,36 %
27.03.2017 03:10 5,1 C 3,3 C 1,7 C 81 % 0 lf 1022,9 hPa 0,0 l/m 0 min 0 min 1 W/m 0,0 km/h (0 Bft) 91,49 %
27.03.2017 03:12 5,1 C 3,3 C 1,1 C 81 % 0 lf 1022,9 hPa 0,0 l/m 0 min 0 min 0 W/m 0,0 km/h (0 Bft) 93,62 %
27.03.2017 03:14 5,1 C 3,3 C 1,1 C 81 % 0 lf 1022,9 hPa 0,0 l/m 0 min 0 min 0 W/m 0,0 km/h (0 Bft) 93,62 %
27.03.2017 03:16 5,0 C 3,3 C 1,1 C 82 % 0 lf 1022,9 hPa 0,0 l/m 0 min 0 min 0 W/m 0,0 km/h (0 Bft) 87,23 %
27.03.2017 03:18 4,9 C 3,3 C 1,1 C 81 % 0 lf 1022,9 hPa 0,0 l/m 0 min 0 min 0 W/m 0,0 km/h (0 Bft) 86,96 %
27.03.2017 03:20 4,9 C 3,3 C 1,1 C 81 % 0 lf 1022,8 hPa 0,0 l/m 0 min 0 min 0 W/m 0,0 km/h (0 Bft) 85,11 %
27.03.2017 03:22 4,9 C 3,3 C 1,1 C 81 % 0 lf 1022,9 hPa 0,0 l/m 0 min 0 min 0 W/m 0,0 km/h (0 Bft) 76,60 %
27.03.2017 03:24 4,8 C 2,8 C 1,1 C 82 % 0 lf 1022,8 hPa 0,0 l/m 0 min 0 min 0 W/m 0,0 km/h (0 Bft) 82,98 %
27.03.2017 03:26 4,8 C 2,8 C 1,1 C 82 % 0 lf 1022,9 hPa 0,0 l/m 0 min 0 min 0 W/m 0,0 km/h (0 Bft) 74,47 %
27.03.2017 03:28 4,8 C 2,8 C 1,1 C 82 % 0 lf 1022,9 hPa 0,0 l/m 0 min 0 min 0 W/m 0,0 km/h (0 Bft) 89,36 %
27.03.2017 03:30 4,7 C 3,3 C 1,1 C 82 % 0 lf 1022,9 hPa 0,0 l/m 0 min 0 min 0 W/m 0,0 km/h (0 Bft) 86,96 %
27.03.2017 03:32 4,7 C 2,8 C 1,1 C 82 % 0 lf 1022,9 hPa 0,0 l/m 0 min 0 min 0 W/m 0,0 km/h (0 Bft) 89,36 %
27.03.2017 03:34 4,7 C 2,8 C 1,1 C 82 % 0 lf 1022,8 hPa 0,0 l/m 0 min 0 min 0 W/m 0,0 km/h (0 Bft) 89,36 %
27.03.2017 03:36 4,6 C 3,3 C 1,1 C 82 % 0 lf 1022,8 hPa 0,0 l/m 0 min 0 min 0 W/m 0,0 km/h (0 Bft) 87,23 %
27.03.2017 03:38 4,6 C 3,3 C 1,1 C 82 % 0 lf 1022,8 hPa 0,0 l/m 0 min 0 min 0 W/m 0,0 km/h (0 Bft) 93,62 %
27.03.2017 03:40 4,6 C 3,3 C 1,1 C 82 % 0 lf 1022,8 hPa 0,0 l/m 0 min 0 min 0 W/m 0,0 km/h (0 Bft) 91,49 %
27.03.2017 03:42 4,6 C 3,3 C 1,1 C 82 % 0 lf 1022,8 hPa 0,0 l/m 0 min 0 min 0 W/m 0,0 km/h (0 Bft) 89,13 %
27.03.2017 03:44 4,5 C 3,3 C 1,1 C 83 % 0 lf 1022,9 hPa 0,0 l/m 0 min 0 min 0 W/m 0,0 km/h (0 Bft) 89,36 %
27.03.2017 03:46 4,5 C 3,3 C 1,1 C 83 % 0 lf 1022,9 hPa 0,0 l/m 0 min 0 min 0 W/m 4,2 km/h (1 Bft) 95,74 %
27.03.2017 03:48 4,4 C 3,3 C 1,1 C 83 % 0 lf 1022,8 hPa 0,0 l/m 0 min 0 min 0 W/m 4,2 km/h (1 Bft) 89,36 %
27.03.2017 03:50 4,4 C 3,3 C 1,1 C 83 % 0 lf 1022,8 hPa 0,0 l/m 0 min 0 min 0 W/m 4,2 km/h (1 Bft) 93,62 %
27.03.2017 03:52 4,4 C 3,3 C 1,1 C 83 % 0 lf 1022,9 hPa 0,0 l/m 0 min 0 min 0 W/m 4,2 km/h (1 Bft) 95,74 %
27.03.2017 03:54 4,4 C 3,3 C 1,1 C 83 % 0 lf 1022,9 hPa 0,0 l/m 0 min 0 min 0 W/m 4,2 km/h (1 Bft) 93,48 %
27.03.2017 03:56 4,4 C 3,3 C 1,1 C 84 % 0 lf 1022,8 hPa 0,0 l/m 0 min 0 min 0 W/m 4,2 km/h (1 Bft) 100,00 %
27.03.2017 03:58 4,3 C 3,3 C 1,1 C 84 % 0 lf 1022,9 hPa 0,0 l/m 0 min 0 min 0 W/m 4,2 km/h (1 Bft) 97,87 %
27.03.2017 04:00 4,3 C 3,3 C 1,1 C 84 % 0 lf 1022,9 hPa 0,0 l/m 0 min 0 min 0 W/m 6,3 km/h (2 Bft) 95,74 %
27.03.2017 04:05 4,3 C 3,3 C 1,1 C 84 % 0 lf 1022,9 hPa 0,0 l/m 0 min 0 min 2 W/m 6,3 km/h (2 Bft) 93,62 %
27.03.2017 04:06 4,3 C 3,3 C 1,1 C 84 % 0 lf 1022,9 hPa 0,0 l/m 0 min 0 min 5 W/m 4,2 km/h (1 Bft) 100,00 %
27.03.2017 04:08 4,2 C 3,3 C 1,1 C 84 % 0 lf 1022,8 hPa 0,0 l/m 0 min 0 min 5 W/m 4,2 km/h (1 Bft) 100,00 %
27.03.2017 04:10 4,2 C 3,3 C 1,1 C 84 % 0 lf 1022,8 hPa 0,0 l/m 0 min 0 min 5 W/m 4,2 km/h (1 Bft) 95,74 %
27.03.2017 04:12 4,2 C 3,3 C 1,1 C 84 % 0 lf 1022,8 hPa 0,0 l/m 0 min 0 min 5 W/m 4,2 km/h (1 Bft) 100,00 %
27.03.2017 04:14 4,2 C 3,3 C 1,1 C 84 % 0 lf 1022,8 hPa 0,0 l/m 0 min 0 min 0 W/m 4,2 km/h (1 Bft) 97,87 %
27.03.2017 04:16 4,1 C 3,3 C 1,1 C 84 % 0 lf 1022,9 hPa 0,0 l/m 0 min 0 min 0 W/m 4,2 km/h (1 Bft) 100,00 %
27.03.2017 04:18 4,1 C 3,3 C 1,1 C 85 % 0 lf 1022,8 hPa 0,0 l/m 0 min 0 min 0 W/m 4,2 km/h (1 Bft) 93,62 %
27.03.2017 04:20 4,1 C 3,3 C 1,1 C 85 % 0 lf 1022,9 hPa 0,0 l/m 0 min 0 min 0 W/m 4,2 km/h (1 Bft) 97,87 %
27.03.2017 04:22 4,1 C 3,3 C 1,1 C 85 % 0 lf 1022,9 hPa 0,0 l/m 0 min 0 min 0 W/m 4,2 km/h (1 Bft) 93,62 %
27.03.2017 04:24 4,1 C 2,8 C 1,1 C 85 % 0 lf 1022,9 hPa 0,0 l/m 0 min 0 min 0 W/m 6,3 km/h (2 Bft) 89,36 %
27.03.2017 04:26 4,0 C 2,8 C 1,1 C 85 % 0 lf 1022,8 hPa 0,0 l/m 0 min 0 min 0 W/m 4,2 km/h (1 Bft) 87,23 %
27.03.2017 04:28 4,0 C 2,8 C 1,1 C 85 % 0 lf 1022,8 hPa 0,0 l/m 0 min 0 min 0 W/m 4,2 km/h (1 Bft) 91,49 %
27.03.2017 04:30 4,0 C 2,8 C 1,1 C 85 % 0 lf 1022,7 hPa 0,0 l/m 0 min 0 min 0 W/m 4,2 km/h (1 Bft) 97,83 %
27.03.2017 04:32 3,9 C 2,8 C 1,1 C 85 % 0 lf 1022,7 hPa 0,0 l/m 0 min 0 min 0 W/m 4,2 km/h (1 Bft) 89,36 %
27.03.2017 04:34 3,9 C 2,8 C 1,1 C 85 % 0 lf 1022,7 hPa 0,0 l/m 0 min 0 min 0 W/m 4,2 km/h (1 Bft) 89,36 %
27.03.2017 04:36 3,9 C 2,8 C 1,1 C 85 % 0 lf 1022,7 hPa 0,0 l/m 0 min 0 min 0 W/m 4,2 km/h (1 Bft) 78,72 %
27.03.2017 04:38 3,9 C 2,8 C 0,6 C 85 % 0 lf 1022,7 hPa 0,0 l/m 0 min 0 min 0 W/m 6,3 km/h (2 Bft) 70,21 %
27.03.2017 04:40 3,9 C 3,3 C 0,6 C 85 % 0 lf 1022,7 hPa 0,0 l/m 0 min 0 min 0 W/m 6,3 km/h (2 Bft) 78,72 %
27.03.2017 04:42 3,8 C 2,8 C 0,6 C 86 % 0 lf 1022,6 hPa 0,0 l/m 0 min 0 min 0 W/m 4,2 km/h (1 Bft) 80,43 %
27.03.2017 04:44 3,8 C 2,8 C 0,6 C 86 % 0 lf 1022,7 hPa 0,0 l/m 0 min 0 min 0 W/m 4,2 km/h (1 Bft) 82,98 %
27.03.2017 04:46 3,8 C 2,8 C 0,6 C 86 % 0 lf 1022,7 hPa 0,0 l/m 0 min 0 min 0 W/m 6,3 km/h (2 Bft) 73,91 %
27.03.2017 04:48 3,8 C 2,8 C 0,6 C 86 % 0 lf 1022,6 hPa 0,0 l/m 0 min 0 min 0 W/m 4,2 km/h (1 Bft) 85,11 %
27.03.2017 04:50 3,8 C 2,8 C 0,6 C 86 % 0 lf 1022,6 hPa 0,0 l/m 0 min 0 min 0 W/m 4,2 km/h (1 Bft) 91,49 %
27.03.2017 04:52 3,8 C 2,8 C 0,6 C 86 % 0 lf 1022,6 hPa 0,0 l/m 0 min 0 min 0 W/m 6,3 km/h (2 Bft) 93,48 %
27.03.2017 04:54 3,7 C 2,8 C 0,6 C 86 % 0 lf 1022,5 hPa 0,0 l/m 0 min 0 min 0 W/m 6,3 km/h (2 Bft) 100,00 %
27.03.2017 04:56 3,7 C 2,8 C 0,6 C 86 % 0 lf 1022,6 hPa 0,0 l/m 0 min 0 min 0 W/m 4,2 km/h (1 Bft) 93,62 %
27.03.2017 04:58 3,7 C 2,8 C 0,6 C 86 % 0 lf 1022,6 hPa 0,0 l/m 0 min 0 min 0 W/m 4,2 km/h (1 Bft) 91,49 %
27.03.2017 05:00 3,7 C 2,8 C 0,6 C 86 % 0 lf 1022,6 hPa 0,0 l/m 0 min 0 min 0 W/m 4,2 km/h (1 Bft) 97,87 %
27.03.2017 05:02 3,7 C 2,8 C 0,6 C 86 % 0 lf 1022,5 hPa 0,0 l/m 0 min 0 min 0 W/m 2,1 km/h (1 Bft) 97,87 %
27.03.2017 05:04 3,7 C 2,8 C 0,6 C 86 % 0 lf 1022,6 hPa 0,0 l/m 0 min 0 min 0 W/m 2,1 km/h (1 Bft) 91,30 %
27.03.2017 05:06 3,7 C 2,8 C 0,6 C 86 % 0 lf 1022,5 hPa 0,0 l/m 0 min 0 min 0 W/m 0,0 km/h (0 Bft) 91,49 %
27.03.2017 05:08 3,6 C 2,8 C 0,6 C 86 % 0 lf 1022,6 hPa 0,0 l/m 0 min 0 min 0 W/m 0,0 km/h (0 Bft) 100,00 %
27.03.2017 05:10 3,6 C 2,8 C 0,6 C 86 % 0 lf 1022,6 hPa 0,0 l/m 0 min 0 min 0 W/m 4,2 km/h (1 Bft) 93,62 %
27.03.2017 05:12 3,6 C 2,8 C 0,6 C 86 % 0 lf 1022,6 hPa 0,0 l/m 0 min 0 min 0 W/m 2,1 km/h (1 Bft) 89,36 %
27.03.2017 05:14 3,6 C 2,8 C 0,6 C 87 % 0 lf 1022,5 hPa 0,0 l/m 0 min 0 min 5 W/m 0,0 km/h (0 Bft) 91,49 %
27.03.2017 05:16 3,6 C 2,8 C 0,6 C 87 % 0 lf 1022,6 hPa 0,0 l/m 0 min 0 min 2 W/m 4,2 km/h (1 Bft) 89,13 %
27.03.2017 05:18 3,5 C 2,8 C 0,6 C 87 % 0 lf 1022,6 hPa 0,0 l/m 0 min 0 min 0 W/m 4,2 km/h (1 Bft) 78,72 %
27.03.2017 05:20 3,5 C 2,8 C 0,6 C 86 % 0 lf 1022,6 hPa 0,0 l/m 0 min 0 min 0 W/m 6,3 km/h (2 Bft) 68,09 %
27.03.2017 05:22 3,4 C 2,8 C 0,6 C 86 % 0 lf 1022,6 hPa 0,0 l/m 0 min 0 min 0 W/m 6,3 km/h (2 Bft) 72,34 %
27.03.2017 05:24 3,4 C 2,8 C 0,6 C 86 % 0 lf 1022,6 hPa 0,0 l/m 0 min 0 min 0 W/m 6,3 km/h (2 Bft) 72,34 %
27.03.2017 05:26 3,4 C 2,8 C 0,6 C 87 % 0 lf 1022,6 hPa 0,0 l/m 0 min 0 min 0 W/m 4,2 km/h (1 Bft) 78,72 %
27.03.2017 05:28 3,4 C 2,8 C 0,6 C 87 % 0 lf 1022,6 hPa 0,0 l/m 0 min 0 min 0 W/m 4,2 km/h (1 Bft) 63,04 %
27.03.2017 05:30 3,4 C 2,8 C 0,6 C 87 % 0 lf 1022,6 hPa 0,0 l/m 0 min 0 min 0 W/m 4,2 km/h (1 Bft) 63,83 %
27.03.2017 05:32 3,4 C 2,8 C 0,6 C 87 % 0 lf 1022,6 hPa 0,0 l/m 0 min 0 min 0 W/m 4,2 km/h (1 Bft) 87,23 %
27.03.2017 05:34 3,4 C 2,8 C 0,6 C 87 % 0 lf 1022,7 hPa 0,0 l/m 0 min 0 min 0 W/m 6,3 km/h (2 Bft) 87,23 %
27.03.2017 05:36 3,4 C 2,8 C 0,6 C 87 % 0 lf 1022,7 hPa 0,0 l/m 0 min 0 min 0 W/m 4,2 km/h (1 Bft) 85,11 %
27.03.2017 05:38 3,3 C 2,8 C 0,6 C 87 % 0 lf 1022,7 hPa 0,0 l/m 0 min 0 min 0 W/m 4,2 km/h (1 Bft) 84,78 %
27.03.2017 05:40 3,3 C 2,8 C 0,6 C 87 % 0 lf 1022,7 hPa 0,0 l/m 0 min 0 min 0 W/m 4,2 km/h (1 Bft) 78,72 %
27.03.2017 05:42 3,3 C 2,8 C 0,6 C 87 % 0 lf 1022,7 hPa 0,0 l/m 0 min 0 min 0 W/m 4,2 km/h (1 Bft) 89,36 %
27.03.2017 05:44 3,3 C 2,8 C 0,6 C 87 % 0 lf 1022,8 hPa 0,0 l/m 0 min 0 min 0 W/m 2,1 km/h (1 Bft) 97,87 %
27.03.2017 05:46 3,3 C 3,3 C 0,6 C 87 % 0 lf 1022,8 hPa 0,0 l/m 0 min 0 min 0 W/m 2,1 km/h (1 Bft) 93,62 %
27.03.2017 05:48 3,3 C 3,3 C 0,6 C 87 % 0 lf 1022,8 hPa 0,0 l/m 0 min 0 min 0 W/m 2,1 km/h (1 Bft) 93,62 %
27.03.2017 05:50 3,3 C 3,3 C 0,6 C 87 % 0 lf 1022,8 hPa 0,0 l/m 0 min 0 min 0 W/m 4,2 km/h (1 Bft) 93,48 %
27.03.2017 05:52 3,3 C 2,8 C 0,6 C 87 % 0 lf 1022,8 hPa 0,0 l/m 0 min 0 min 0 W/m 4,2 km/h (1 Bft) 82,98 %
27.03.2017 05:54 3,3 C 2,8 C 0,6 C 87 % 0 lf 1022,8 hPa 0,0 l/m 0 min 0 min 0 W/m 4,2 km/h (1 Bft) 80,85 %
27.03.2017 05:56 3,2 C 2,8 C 0,6 C 88 % 0 lf 1022,8 hPa 0,0 l/m 0 min 0 min 0 W/m 4,2 km/h (1 Bft) 91,49 %
27.03.2017 05:58 3,2 C 2,8 C 0,6 C 88 % 0 lf 1022,8 hPa 0,0 l/m 0 min 0 min 0 W/m 2,1 km/h (1 Bft) 95,74 %
27.03.2017 06:00 3,2 C 2,8 C 0,0 C 88 % 0 lf 1022,8 hPa 0,0 l/m 0 min 0 min 0 W/m 4,2 km/h (1 Bft) 95,74 %
27.03.2017 06:02 3,2 C 2,8 C 0,0 C 88 % 0 lf 1022,8 hPa 0,0 l/m 0 min 0 min 0 W/m 6,3 km/h (2 Bft) 93,48 %
27.03.2017 06:04 3,2 C 2,8 C 0,0 C 88 % 0 lf 1022,8 hPa 0,0 l/m 0 min 0 min 0 W/m 6,3 km/h (2 Bft) 74,47 %
27.03.2017 06:06 3,2 C 2,8 C 0,0 C 88 % 0 lf 1022,8 hPa 0,0 l/m 0 min 0 min 0 W/m 6,3 km/h (2 Bft) 78,72 %
27.03.2017 06:08 3,2 C 2,8 C 0,0 C 88 % 0 lf 1022,9 hPa 0,0 l/m 0 min 0 min 0 W/m 6,3 km/h (2 Bft) 65,96 %
27.03.2017 06:10 3,2 C 3,3 C 0,0 C 88 % 0 lf 1022,8 hPa 0,0 l/m 0 min 0 min 0 W/m 8,4 km/h (2 Bft) 76,60 %
27.03.2017 06:12 3,2 C 3,3 C 0,0 C 88 % 0 lf 1022,8 hPa 0,0 l/m 0 min 0 min 0 W/m 8,4 km/h (2 Bft) 63,83 %
27.03.2017 06:14 3,1 C 3,3 C 0,6 C 88 % 0 lf 1022,8 hPa 0,0 l/m 0 min 0 min 0 W/m 8,4 km/h (2 Bft) 82,61 %
27.03.2017 06:16 3,1 C 3,3 C 0,6 C 88 % 0 lf 1022,8 hPa 0,0 l/m 0 min 0 min 0 W/m 8,4 km/h (2 Bft) 95,74 %
27.03.2017 06:18 3,1 C 3,3 C 0,6 C 88 % 0 lf 1022,8 hPa 0,0 l/m 0 min 0 min 0 W/m 8,4 km/h (2 Bft) 93,62 %
27.03.2017 06:20 3,1 C 3,9 C 0,6 C 88 % 0 lf 1022,8 hPa 0,0 l/m 0 min 0 min 0 W/m 8,4 km/h (2 Bft) 93,62 %
27.03.2017 06:22 3,1 C 3,9 C 0,6 C 88 % 0 lf 1022,8 hPa 0,0 l/m 0 min 0 min 0 W/m 6,3 km/h (2 Bft) 93,62 %
27.03.2017 06:24 3,1 C 3,3 C 0,6 C 88 % 0 lf 1022,8 hPa 0,0 l/m 0 min 0 min 0 W/m 6,3 km/h (2 Bft) 82,98 %
27.03.2017 06:26 3,1 C 3,3 C 0,6 C 88 % 0 lf 1022,8 hPa 0,0 l/m 0 min 0 min 0 W/m 4,2 km/h (1 Bft) 86,96 %
27.03.2017 06:28 3,1 C 3,3 C 0,6 C 88 % 0 lf 1022,9 hPa 0,0 l/m 0 min 0 min 0 W/m 4,2 km/h (1 Bft) 87,23 %
27.03.2017 06:30 3,1 C 3,3 C 0,6 C 88 % 0 lf 1022,8 hPa 0,0 l/m 0 min 0 min 0 W/m 4,2 km/h (1 Bft) 91,49 %
27.03.2017 06:32 3,1 C 3,3 C 0,6 C 89 % 0 lf 1022,8 hPa 0,0 l/m 0 min 0 min 0 W/m 6,3 km/h (2 Bft) 89,36 %
27.03.2017 06:34 3,1 C 3,3 C 0,6 C 89 % 0 lf 1022,8 hPa 0,0 l/m 0 min 0 min 0 W/m 4,2 km/h (1 Bft) 89,36 %
27.03.2017 06:36 3,1 C 3,3 C 0,0 C 89 % 0 lf 1022,9 hPa 0,0 l/m 0 min 0 min 0 W/m 6,3 km/h (2 Bft) 78,26 %
27.03.2017 06:38 3,1 C 3,3 C 0,0 C 89 % 0 lf 1022,9 hPa 0,0 l/m 0 min 0 min 0 W/m 2,1 km/h (1 Bft) 85,11 %
27.03.2017 06:40 3,1 C 3,3 C 0,0 C 89 % 0 lf 1022,9 hPa 0,0 l/m 0 min 0 min 0 W/m 6,3 km/h (2 Bft) 85,11 %
27.03.2017 06:42 3,1 C 3,3 C 0,0 C 89 % 0 lf 1022,9 hPa 0,0 l/m 0 min 0 min 0 W/m 8,4 km/h (2 Bft) 93,62 %
27.03.2017 06:44 3,1 C 3,3 C 0,0 C 89 % 0 lf 1022,9 hPa 0,0 l/m 0 min 0 min 0 W/m 8,4 km/h (2 Bft) 89,36 %
27.03.2017 06:46 3,1 C 3,3 C 0,0 C 89 % 0 lf 1022,9 hPa 0,0 l/m 0 min 0 min 0 W/m 6,3 km/h (2 Bft) 93,62 %
27.03.2017 06:48 3,1 C 3,3 C 0,0 C 89 % 0 lf 1022,9 hPa 0,0 l/m 0 min 0 min 0 W/m 8,4 km/h (2 Bft) 97,83 %
27.03.2017 06:50 3,1 C 3,3 C 0,0 C 89 % 0 lf 1023,0 hPa 0,0 l/m 0 min 0 min 0 W/m 6,3 km/h (2 Bft) 97,87 %
27.03.2017 06:52 3,1 C 3,3 C 0,0 C 89 % 0 lf 1023,0 hPa 0,0 l/m 0 min 0 min 0 W/m 6,3 km/h (2 Bft) 95,74 %
27.03.2017 06:54 3,1 C 3,9 C 0,0 C 89 % 0 lf 1023,0 hPa 0,0 l/m 0 min 0 min 0 W/m 6,3 km/h (2 Bft) 89,36 %
27.03.2017 06:56 3,1 C 3,9 C 0,0 C 89 % 0 lf 1022,9 hPa 0,0 l/m 0 min 0 min 0 W/m 6,3 km/h (2 Bft) 91,49 %
27.03.2017 06:58 3,1 C 3,9 C 0,0 C 89 % 0 lf 1023,0 hPa 0,0 l/m 0 min 0 min 0 W/m 4,2 km/h (1 Bft) 85,11 %
27.03.2017 07:00 3,1 C 3,9 C 0,0 C 89 % 0 lf 1023,0 hPa 0,0 l/m 0 min 0 min 0 W/m 4,2 km/h (1 Bft) 93,48 %
27.03.2017 07:02 3,1 C 3,9 C 0,0 C 89 % 0 lf 1023,0 hPa 0,0 l/m 0 min 0 min 1 W/m 4,2 km/h (1 Bft) 89,36 %
27.03.2017 07:04 3,1 C 3,9 C 0,0 C 89 % 0 lf 1023,0 hPa 0,0 l/m 0 min 0 min 5 W/m 6,3 km/h (2 Bft) 87,23 %
27.03.2017 07:06 3,1 C 3,9 C 0,0 C 89 % 0 lf 1023,0 hPa 0,0 l/m 0 min 0 min 5 W/m 6,3 km/h (2 Bft) 87,23 %
27.03.2017 07:08 3,1 C 3,9 C 0,0 C 89 % 0 lf 1023,0 hPa 0,0 l/m 0 min 0 min 5 W/m 4,2 km/h (1 Bft) 68,09 %
27.03.2017 07:10 3,1 C 3,9 C 0,0 C 89 % 0 lf 1023,1 hPa 0,0 l/m 0 min 0 min 6 W/m 6,3 km/h (2 Bft) 76,60 %
27.03.2017 07:12 3,1 C 3,9 C 0,6 C 89 % 0 lf 1023,1 hPa 0,0 l/m 0 min 0 min 7 W/m 6,3 km/h (2 Bft) 80,43 %
27.03.2017 07:14 3,1 C 4,4 C 0,6 C 89 % 0 lf 1023,1 hPa 0,0 l/m 0 min 0 min 7 W/m 8,4 km/h (2 Bft) 95,74 %
27.03.2017 07:16 3,2 C 4,4 C 0,6 C 89 % 0 lf 1023,1 hPa 0,0 l/m 0 min 0 min 9 W/m 8,4 km/h (2 Bft) 97,87 %
27.03.2017 07:18 3,2 C 4,4 C 0,6 C 89 % 0 lf 1023,1 hPa 0,0 l/m 0 min 0 min 9 W/m 8,4 km/h (2 Bft) 91,49 %
27.03.2017 07:20 3,2 C 5,0 C 0,6 C 90 % 0 lf 1023,1 hPa 0,0 l/m 0 min 0 min 9 W/m 6,3 km/h (2 Bft) 95,74 %
27.03.2017 07:22 3,2 C 5,0 C 0,6 C 90 % 0 lf 1023,2 hPa 0,0 l/m 0 min 0 min 11 W/m 6,3 km/h (2 Bft) 89,36 %
27.03.2017 07:24 3,3 C 5,0 C 0,6 C 90 % 0 lf 1023,1 hPa 0,0 l/m 0 min 0 min 11 W/m 6,3 km/h (2 Bft) 91,30 %
27.03.2017 07:26 3,3 C 5,0 C 0,6 C 90 % 0 lf 1023,2 hPa 0,0 l/m 0 min 0 min 12 W/m 6,3 km/h (2 Bft) 97,87 %
27.03.2017 07:28 3,3 C 4,4 C 0,6 C 90 % 0 lf 1023,2 hPa 0,0 l/m 0 min 0 min 14 W/m 8,4 km/h (2 Bft) 97,87 %
27.03.2017 07:30 3,3 C 4,4 C 0,6 C 90 % 0 lf 1023,2 hPa 0,0 l/m 0 min 0 min 15 W/m 6,3 km/h (2 Bft) 97,87 %
27.03.2017 07:32 3,4 C 4,4 C 0,6 C 90 % 0 lf 1023,2 hPa 0,0 l/m 0 min 0 min 16 W/m 6,3 km/h (2 Bft) 91,49 %
27.03.2017 07:34 3,4 C 4,4 C 0,6 C 90 % 0 lf 1023,2 hPa 0,0 l/m 0 min 0 min 18 W/m 6,3 km/h (2 Bft) 89,36 %
27.03.2017 07:36 3,4 C 4,4 C 0,6 C 90 % 0 lf 1023,2 hPa 0,0 l/m 0 min 0 min 19 W/m 10,5 km/h (2 Bft) 89,13 %
27.03.2017 07:38 3,4 C 4,4 C 0,6 C 89 % 0 lf 1023,3 hPa 0,0 l/m 2 min 0 min 21 W/m 6,3 km/h (2 Bft) 97,87 %
27.03.2017 07:40 3,4 C 4,4 C 0,6 C 89 % 0 lf 1023,3 hPa 0,0 l/m 2 min 0 min 23 W/m 4,2 km/h (1 Bft) 95,74 %
27.03.2017 07:42 3,5 C 5,0 C 0,6 C 89 % 0 lf 1023,3 hPa 0,0 l/m 2 min 0 min 25 W/m 6,3 km/h (2 Bft) 89,36 %
27.03.2017 07:44 3,5 C 5,0 C 0,6 C 89 % 0 lf 1023,3 hPa 0,0 l/m 2 min 0 min 26 W/m 6,3 km/h (2 Bft) 97,87 %
27.03.2017 07:46 3,5 C 5,0 C 1,1 C 89 % 0 lf 1023,3 hPa 0,0 l/m 2 min 0 min 28 W/m 6,3 km/h (2 Bft) 89,13 %
27.03.2017 07:48 3,6 C 5,0 C 1,1 C 89 % 0 lf 1023,4 hPa 0,0 l/m 2 min 0 min 31 W/m 8,4 km/h (2 Bft) 95,74 %
27.03.2017 07:50 3,6 C 5,6 C 1,1 C 89 % 0 lf 1023,3 hPa 0,0 l/m 2 min 0 min 34 W/m 10,5 km/h (2 Bft) 93,62 %
27.03.2017 07:52 3,6 C 5,6 C 1,7 C 89 % 0 lf 1023,3 hPa 0,0 l/m 2 min 0 min 38 W/m 6,3 km/h (2 Bft) 95,74 %
27.03.2017 07:54 3,7 C 5,6 C 1,7 C 89 % 0 lf 1023,4 hPa 0,0 l/m 2 min 0 min 41 W/m 8,4 km/h (2 Bft) 95,74 %
27.03.2017 07:56 3,7 C 5,6 C 2,2 C 89 % 0 lf 1023,3 hPa 0,0 l/m 2 min 0 min 44 W/m 8,4 km/h (2 Bft) 95,74 %
27.03.2017 07:58 3,8 C 5,6 C 2,2 C 89 % 0 lf 1023,3 hPa 0,0 l/m 2 min 0 min 47 W/m 8,4 km/h (2 Bft) 93,48 %
27.03.2017 08:00 3,8 C 5,6 C 2,2 C 89 % 0 lf 1023,4 hPa 0,0 l/m 2 min 0 min 51 W/m 6,3 km/h (2 Bft) 95,74 %
27.03.2017 08:02 3,9 C 5,6 C 2,2 C 88 % 0 lf 1023,4 hPa 0,0 l/m 2 min 0 min 56 W/m 6,3 km/h (2 Bft) 95,74 %
27.03.2017 08:04 3,9 C 6,1 C 2,2 C 88 % 0 lf 1023,4 hPa 0,0 l/m 2 min 0 min 62 W/m 8,4 km/h (2 Bft) 93,62 %
27.03.2017 08:06 4,0 C 6,1 C 2,2 C 88 % 0 lf 1023,4 hPa 0,0 l/m 2 min 0 min 67 W/m 8,4 km/h (2 Bft) 89,36 %
27.03.2017 08:08 4,1 C 6,1 C 2,2 C 88 % 0 lf 1023,4 hPa 0,0 l/m 2 min 0 min 71 W/m 4,2 km/h (1 Bft) 95,74 %
27.03.2017 08:10 4,1 C 5,6 C 2,2 C 88 % 0 lf 1023,5 hPa 0,0 l/m 2 min 0 min 77 W/m 8,4 km/h (2 Bft) 95,65 %
27.03.2017 08:12 4,2 C 6,1 C 2,2 C 87 % 0 lf 1023,4 hPa 0,0 l/m 2 min 0 min 84 W/m 8,4 km/h (2 Bft) 93,62 %
27.03.2017 08:14 4,2 C 6,1 C 2,2 C 87 % 0 lf 1023,4 hPa 0,0 l/m 2 min 0 min 82 W/m 10,5 km/h (2 Bft) 95,74 %
27.03.2017 08:16 4,2 C 6,1 C 2,8 C 87 % 0 lf 1023,4 hPa 0,0 l/m 2 min 0 min 77 W/m 6,3 km/h (2 Bft) 95,74 %
27.03.2017 08:18 4,3 C 6,1 C 2,2 C 87 % 0 lf 1023,4 hPa 0,0 l/m 2 min 0 min 84 W/m 8,4 km/h (2 Bft) 95,74 %
27.03.2017 08:20 4,3 C 6,1 C 2,2 C 87 % 0 lf 1023,4 hPa 0,0 l/m 2 min 0 min 105 W/m 4,2 km/h (1 Bft) 91,49 %
27.03.2017 08:22 4,4 C 6,1 C 2,2 C 86 % 0 lf 1023,3 hPa 0,0 l/m 2 min 0 min 115 W/m 6,3 km/h (2 Bft) 91,30 %
27.03.2017 08:24 4,4 C 6,7 C 2,2 C 86 % 0 lf 1023,4 hPa 0,0 l/m 2 min 0 min 123 W/m 4,2 km/h (1 Bft) 93,62 %
27.03.2017 08:26 4,4 C 6,7 C 2,2 C 86 % 0 lf 1023,4 hPa 0,0 l/m 2 min 0 min 128 W/m 6,3 km/h (2 Bft) 91,49 %
27.03.2017 08:28 4,5 C 6,7 C 2,8 C 86 % 0 lf 1023,4 hPa 0,0 l/m 2 min 0 min 129 W/m 4,2 km/h (1 Bft) 95,74 %
27.03.2017 08:30 4,6 C 6,7 C 2,8 C 86 % 0 lf 1023,5 hPa 0,0 l/m 2 min 0 min 142 W/m 4,2 km/h (1 Bft) 91,49 %
27.03.2017 08:32 4,7 C 6,7 C 3,3 C 85 % 0 lf 1023,5 hPa 0,0 l/m 2 min 0 min 148 W/m 14,6 km/h (3 Bft) 85,11 %
27.03.2017 08:34 4,7 C 7,8 C 3,3 C 85 % 0 lf 1023,5 hPa 0,0 l/m 2 min 0 min 153 W/m 8,4 km/h (2 Bft) 91,30 %
27.03.2017 08:36 4,8 C 9,4 C 3,3 C 85 % 0 lf 1023,5 hPa 0,0 l/m 2 min 0 min 160 W/m 10,5 km/h (2 Bft) 89,36 %
27.03.2017 08:38 4,9 C 11,1 C 3,9 C 85 % 0 lf 1023,5 hPa 0,0 l/m 2 min 0 min 167 W/m 10,5 km/h (2 Bft) 80,85 %
27.03.2017 08:40 5,0 C 12,2 C 3,9 C 85 % 0 lf 1023,5 hPa 0,0 l/m 2 min 0 min 177 W/m 8,4 km/h (2 Bft) 82,98 %
27.03.2017 08:42 5,1 C 12,8 C 4,4 C 84 % 0 lf 1023,5 hPa 0,0 l/m 2 min 0 min 186 W/m 10,5 km/h (2 Bft) 87,23 %
27.03.2017 08:44 5,3 C 13,3 C 4,4 C 84 % 0 lf 1023,5 hPa 0,0 l/m 2 min 0 min 193 W/m 10,5 km/h (2 Bft) 95,74 %
27.03.2017 08:46 5,4 C 13,9 C 4,4 C 84 % 0 lf 1023,5 hPa 0,0 l/m 2 min 0 min 200 W/m 16,7 km/h (3 Bft) 97,83 %
27.03.2017 08:48 5,6 C 14,4 C 5,0 C 84 % 0 lf 1023,5 hPa 0,0 l/m 2 min 0 min 206 W/m 10,5 km/h (2 Bft) 91,49 %
27.03.2017 08:50 5,8 C 15,0 C 5,0 C 83 % 0 lf 1023,5 hPa 0,0 l/m 2 min 0 min 217 W/m 8,4 km/h (2 Bft) 97,87 %
27.03.2017 08:52 5,9 C 15,6 C 5,0 C 83 % 0 lf 1023,5 hPa 0,0 l/m 2 min 0 min 225 W/m 10,5 km/h (2 Bft) 100,00 %
27.03.2017 08:54 6,1 C 16,1 C 5,0 C 82 % 0 lf 1023,6 hPa 0,0 l/m 2 min 0 min 232 W/m 10,5 km/h (2 Bft) 100,00 %
27.03.2017 08:56 6,3 C 16,1 C 5,6 C 82 % 0 lf 1023,5 hPa 0,0 l/m 2 min 0 min 236 W/m 10,5 km/h (2 Bft) 95,65 %
27.03.2017 08:58 6,4 C 16,1 C 5,6 C 82 % 0 lf 1023,5 hPa 0,0 l/m 2 min 0 min 234 W/m 14,6 km/h (3 Bft) 95,74 %
27.03.2017 09:00 6,7 C 16,1 C 6,1 C 81 % 0 lf 1023,5 hPa 0,0 l/m 2 min 0 min 233 W/m 14,6 km/h (3 Bft) 89,36 %
27.03.2017 09:02 6,9 C 16,1 C 6,1 C 80 % 0 lf 1023,6 hPa 0,0 l/m 2 min 0 min 221 W/m 14,6 km/h (3 Bft) 97,87 %
27.03.2017 09:04 7,1 C 16,1 C 6,1 C 79 % 0 lf 1023,6 hPa 0,0 l/m 2 min 0 min 231 W/m 16,7 km/h (3 Bft) 93,62 %
27.03.2017 09:06 7,3 C 16,1 C 6,1 C 78 % 0 lf 1023,6 hPa 0,0 l/m 2 min 0 min 247 W/m 10,5 km/h (2 Bft) 93,62 %
27.03.2017 09:08 7,4 C 16,1 C 6,7 C 77 % 0 lf 1023,5 hPa 0,0 l/m 2 min 0 min 261 W/m 14,6 km/h (3 Bft) 95,65 %
27.03.2017 09:10 7,7 C 15,6 C 6,7 C 76 % 0 lf 1023,5 hPa 0,0 l/m 2 min 0 min 267 W/m 14,6 km/h (3 Bft) 95,74 %
27.03.2017 09:12 7,9 C 15,6 C 7,2 C 75 % 0 lf 1023,5 hPa 0,0 l/m 2 min 0 min 273 W/m 10,5 km/h (2 Bft) 93,62 %
27.03.2017 09:14 8,1 C 15,0 C 7,2 C 74 % 0 lf 1023,5 hPa 0,0 l/m 2 min 0 min 271 W/m 12,6 km/h (3 Bft) 95,74 %
27.03.2017 09:16 8,3 C 15,0 C 7,2 C 73 % 0 lf 1023,6 hPa 0,0 l/m 2 min 0 min 268 W/m 18,8 km/h (3 Bft) 93,62 %
27.03.2017 09:18 8,4 C 15,0 C 7,2 C 72 % 0 lf 1023,6 hPa 0,0 l/m 2 min 0 min 282 W/m 20,9 km/h (4 Bft) 95,74 %
27.03.2017 09:20 8,6 C 15,6 C 7,2 C 71 % 0 lf 1023,6 hPa 0,0 l/m 2 min 0 min 295 W/m 18,8 km/h (3 Bft) 95,65 %
27.03.2017 09:22 8,8 C 15,0 C 7,2 C 71 % 0 lf 1023,5 hPa 0,0 l/m 2 min 0 min 302 W/m 23,0 km/h (4 Bft) 93,62 %
27.03.2017 09:24 8,9 C 15,6 C 7,8 C 70 % 0 lf 1023,5 hPa 0,0 l/m 2 min 0 min 304 W/m 16,7 km/h (3 Bft) 95,74 %
27.03.2017 09:26 9,1 C 15,6 C 7,8 C 70 % 0 lf 1023,6 hPa 0,0 l/m 2 min 0 min 308 W/m 14,6 km/h (3 Bft) 95,65 %
27.03.2017 09:28 9,2 C 16,1 C 7,8 C 70 % 0 lf 1023,5 hPa 0,0 l/m 2 min 0 min 308 W/m 20,9 km/h (4 Bft) 93,62 %
27.03.2017 09:30 9,3 C 16,7 C 7,8 C 70 % 0 lf 1023,5 hPa 0,0 l/m 2 min 0 min 317 W/m 14,6 km/h (3 Bft) 93,62 %
27.03.2017 09:32 9,3 C 17,2 C 7,8 C 69 % 0 lf 1023,5 hPa 0,0 l/m 2 min 0 min 326 W/m 16,7 km/h (3 Bft) 91,30 %
27.03.2017 09:34 9,4 C 17,2 C 8,3 C 69 % 0 lf 1023,6 hPa 0,0 l/m 2 min 0 min 333 W/m 18,8 km/h (3 Bft) 93,62 %
27.03.2017 09:36 9,6 C 17,8 C 8,3 C 69 % 0 lf 1023,6 hPa 0,0 l/m 2 min 0 min 331 W/m 20,9 km/h (4 Bft) 91,49 %
27.03.2017 09:38 9,7 C 17,2 C 8,3 C 68 % 0 lf 1023,6 hPa 0,0 l/m 2 min 0 min 331 W/m 20,9 km/h (4 Bft) 93,62 %
27.03.2017 09:40 9,8 C 16,7 C 8,9 C 68 % 0 lf 1023,6 hPa 0,0 l/m 2 min 0 min 343 W/m 18,8 km/h (3 Bft) 93,62 %
27.03.2017 09:42 9,9 C 16,7 C 8,9 C 67 % 0 lf 1023,5 hPa 0,0 l/m 2 min 0 min 347 W/m 20,9 km/h (4 Bft) 97,87 %
27.03.2017 09:44 10,1 C 16,1 C 8,9 C 67 % 0 lf 1023,6 hPa 0,0 l/m 2 min 0 min 354 W/m 14,6 km/h (3 Bft) 97,83 %
27.03.2017 09:46 10,2 C 16,1 C 9,4 C 66 % 0 lf 1023,6 hPa 0,0 l/m 2 min 0 min 358 W/m 14,6 km/h (3 Bft) 95,74 %
27.03.2017 09:48 10,3 C 16,1 C 9,4 C 65 % 0 lf 1023,6 hPa 0,0 l/m 2 min 0 min 362 W/m 14,6 km/h (3 Bft) 91,49 %
27.03.2017 09:50 10,4 C 16,1 C 10,0 C 65 % 0 lf 1023,6 hPa 0,0 l/m 2 min 0 min 368 W/m 12,6 km/h (3 Bft) 97,87 %
27.03.2017 09:52 10,4 C 15,6 C 10,6 C 64 % 0 lf 1023,7 hPa 0,0 l/m 2 min 0 min 375 W/m 16,7 km/h (3 Bft) 100,00 %
27.03.2017 09:54 10,6 C 15,0 C 11,1 C 63 % 0 lf 1023,6 hPa 0,0 l/m 2 min 0 min 379 W/m 23,0 km/h (4 Bft) 100,00 %
27.03.2017 09:56 10,7 C 15,6 C 11,1 C 62 % 0 lf 1023,7 hPa 0,0 l/m 2 min 0 min 384 W/m 18,8 km/h (3 Bft) 93,48 %
27.03.2017 09:58 10,7 C 15,6 C 12,2 C 62 % 0 lf 1023,7 hPa 0,0 l/m 2 min 0 min 389 W/m 23,0 km/h (4 Bft) 100,00 %
27.03.2017 10:00 10,8 C 15,6 C 12,2 C 61 % 0 lf 1023,6 hPa 0,0 l/m 2 min 0 min 392 W/m 27,2 km/h (4 Bft) 100,00 %
27.03.2017 10:02 10,8 C 17,2 C 12,8 C 62 % 0 lf 1023,6 hPa 0,0 l/m 2 min 0 min 398 W/m 20,9 km/h (4 Bft) 100,00 %
27.03.2017 10:04 10,9 C 17,2 C 13,3 C 61 % 0 lf 1023,6 hPa 0,0 l/m 2 min 0 min 402 W/m 25,1 km/h (4 Bft) 95,74 %
27.03.2017 10:06 11,0 C 17,8 C 13,3 C 61 % 0 lf 1023,6 hPa 0,0 l/m 2 min 0 min 407 W/m 23,0 km/h (4 Bft) 95,65 %
27.03.2017 10:08 11,1 C 16,7 C 13,9 C 61 % 0 lf 1023,6 hPa 0,0 l/m 2 min 0 min 418 W/m 25,1 km/h (4 Bft) 95,74 %
27.03.2017 10:10 11,1 C 17,8 C 13,9 C 61 % 0 lf 1023,6 hPa 0,0 l/m 2 min 0 min 424 W/m 18,8 km/h (3 Bft) 97,87 %
27.03.2017 10:12 11,1 C 17,8 C 14,4 C 61 % 0 lf 1023,7 hPa 0,0 l/m 2 min 0 min 423 W/m 20,9 km/h (4 Bft) 100,00 %
27.03.2017 10:14 11,2 C 17,8 C 15,0 C 61 % 0 lf 1023,6 hPa 0,0 l/m 2 min 0 min 423 W/m 27,2 km/h (4 Bft) 97,87 %
27.03.2017 10:16 11,2 C 18,3 C 15,0 C 60 % 0 lf 1023,7 hPa 0,0 l/m 2 min 0 min 432 W/m 23,0 km/h (4 Bft) 100,00 %
27.03.2017 10:18 11,3 C 17,2 C 15,0 C 61 % 0 lf 1023,6 hPa 0,0 l/m 2 min 0 min 436 W/m 25,1 km/h (4 Bft) 100,00 %
27.03.2017 10:20 11,4 C 16,7 C 15,6 C 60 % 0 lf 1023,6 hPa 0,0 l/m 2 min 0 min 442 W/m 18,8 km/h (3 Bft) 100,00 %
27.03.2017 10:22 11,5 C 18,3 C 15,6 C 60 % 0 lf 1023,7 hPa 0,0 l/m 2 min 0 min 456 W/m 16,7 km/h (3 Bft) 97,87 %
27.03.2017 10:24 11,6 C 17,8 C 15,0 C 60 % 0 lf 1023,7 hPa 0,0 l/m 2 min 0 min 462 W/m 20,9 km/h (4 Bft) 95,74 %
27.03.2017 10:26 11,6 C 18,3 C 15,0 C 58 % 0 lf 1023,8 hPa 0,0 l/m 2 min 0 min 469 W/m 23,0 km/h (4 Bft) 93,62 %
27.03.2017 10:28 11,7 C 16,7 C 15,0 C 57 % 0 lf 1023,8 hPa 0,0 l/m 2 min 0 min 474 W/m 20,9 km/h (4 Bft) 97,87 %
27.03.2017 10:30 11,8 C 18,3 C 15,0 C 58 % 0 lf 1023,7 hPa 0,0 l/m 2 min 0 min 476 W/m 25,1 km/h (4 Bft) 97,83 %
27.03.2017 10:32 11,8 C 18,3 C 15,6 C 58 % 0 lf 1023,7 hPa 0,0 l/m 2 min 0 min 484 W/m 20,9 km/h (4 Bft) 95,74 %
27.03.2017 10:34 11,8 C 19,4 C 15,6 C 58 % 0 lf 1023,7 hPa 0,0 l/m 2 min 0 min 490 W/m 12,6 km/h (3 Bft) 97,87 %
27.03.2017 10:36 11,9 C 17,8 C 16,1 C 58 % 0 lf 1023,7 hPa 0,0 l/m 2 min 0 min 494 W/m 23,0 km/h (4 Bft) 95,74 %
27.03.2017 10:38 12,0 C 16,7 C 15,6 C 57 % 0 lf 1023,8 hPa 0,0 l/m 2 min 0 min 505 W/m 25,1 km/h (4 Bft) 95,74 %
27.03.2017 10:40 12,0 C 16,7 C 15,0 C 57 % 0 lf 1023,7 hPa 0,0 l/m 2 min 0 min 509 W/m 20,9 km/h (4 Bft) 94,00 %
27.03.2017 10:42 12,0 C 16,1 C 13,9 C 56 % 0 lf 1023,7 hPa 0,0 l/m 2 min 0 min 513 W/m 29,3 km/h (5 Bft) 95,65 %
27.03.2017 10:44 12,1 C 16,7 C 13,3 C 56 % 0 lf 1023,7 hPa 0,0 l/m 2 min 0 min 518 W/m 20,9 km/h (4 Bft) 97,87 %
27.03.2017 10:46 12,1 C 15,6 C 12,8 C 56 % 0 lf 1023,7 hPa 0,0 l/m 2 min 0 min 522 W/m 18,8 km/h (3 Bft) 97,87 %
27.03.2017 10:48 12,1 C 15,6 C 12,8 C 56 % 0 lf 1023,7 hPa 0,0 l/m 2 min 0 min 525 W/m 23,0 km/h (4 Bft) 95,74 %
27.03.2017 10:50 12,1 C 16,7 C 12,8 C 56 % 0 lf 1023,8 hPa 0,0 l/m 2 min 0 min 529 W/m 29,3 km/h (5 Bft) 89,36 %
27.03.2017 10:52 12,1 C 16,7 C 12,8 C 56 % 0 lf 1023,7 hPa 0,0 l/m 2 min 0 min 533 W/m 27,2 km/h (4 Bft) 95,65 %
27.03.2017 10:54 12,1 C 17,8 C 13,9 C 57 % 0 lf 1023,7 hPa 0,0 l/m 2 min 0 min 537 W/m 16,7 km/h (3 Bft) 95,74 %
27.03.2017 10:56 12,2 C 18,9 C 15,6 C 58 % 0 lf 1023,8 hPa 0,0 l/m 2 min 0 min 541 W/m 25,1 km/h (4 Bft) 95,74 %
27.03.2017 10:58 12,2 C 18,3 C 16,1 C 57 % 0 lf 1023,8 hPa 0,0 l/m 2 min 0 min 654 W/m 23,0 km/h (4 Bft) 91,49 %
27.03.2017 11:00 12,3 C 17,8 C 16,1 C 57 % 0 lf 1023,7 hPa 0,0 l/m 2 min 0 min 548 W/m 29,3 km/h (5 Bft) 93,62 %
27.03.2017 11:03 12,3 C 18,9 C 16,7 C 57 % 0 lf 1023,8 hPa 0,0 l/m 2 min 0 min 554 W/m 25,1 km/h (4 Bft) 97,14 %
27.03.2017 11:04 12,3 C 18,9 C 16,7 C 57 % 0 lf 1023,8 hPa 0,0 l/m 1 min 0 min 556 W/m 20,9 km/h (4 Bft) 91,30 %
27.03.2017 11:06 12,4 C 19,4 C 17,2 C 57 % 0 lf 1023,7 hPa 0,0 l/m 2 min 0 min 559 W/m 23,0 km/h (4 Bft) 93,62 %
27.03.2017 11:08 12,5 C 20,0 C 17,8 C 58 % 0 lf 1023,8 hPa 0,0 l/m 2 min 0 min 563 W/m 18,8 km/h (3 Bft) 95,74 %
27.03.2017 11:10 12,6 C 20,6 C 18,3 C 58 % 0 lf 1023,7 hPa 0,0 l/m 2 min 0 min 567 W/m 16,7 km/h (3 Bft) 95,74 %
27.03.2017 11:12 12,7 C 20,0 C 18,3 C 58 % 0 lf 1023,8 hPa 0,0 l/m 2 min 0 min 570 W/m 18,8 km/h (3 Bft) 95,74 %
27.03.2017 11:14 12,8 C 20,0 C 17,8 C 58 % 0 lf 1023,7 hPa 0,0 l/m 2 min 0 min 574 W/m 25,1 km/h (4 Bft) 91,49 %
27.03.2017 11:16 12,9 C 19,4 C 17,8 C 57 % 0 lf 1023,7 hPa 0,0 l/m 2 min 0 min 752 W/m 20,9 km/h (4 Bft) 91,30 %
27.03.2017 11:18 13,0 C 19,4 C 17,8 C 56 % 0 lf 1023,7 hPa 0,0 l/m 2 min 0 min 640 W/m 18,8 km/h (3 Bft) 91,49 %
27.03.2017 11:20 13,1 C 19,4 C 18,3 C 57 % 0 lf 1023,7 hPa 0,0 l/m 2 min 0 min 709 W/m 23,0 km/h (4 Bft) 93,62 %
27.03.2017 11:22 13,1 C 18,3 C 18,3 C 56 % 0 lf 1023,7 hPa 0,0 l/m 2 min 0 min 587 W/m 18,8 km/h (3 Bft) 89,36 %
27.03.2017 11:24 13,2 C 18,3 C 18,3 C 56 % 0 lf 1023,7 hPa 0,0 l/m 2 min 0 min 590 W/m 25,1 km/h (4 Bft) 95,74 %
27.03.2017 11:26 13,2 C 18,3 C 18,3 C 55 % 0 lf 1023,7 hPa 0,0 l/m 2 min 0 min 593 W/m 25,1 km/h (4 Bft) 95,74 %
27.03.2017 11:28 13,3 C 18,9 C 18,3 C 55 % 0 lf 1023,7 hPa 0,0 l/m 2 min 0 min 597 W/m 16,7 km/h (3 Bft) 95,65 %
27.03.2017 11:30 13,4 C 18,9 C 18,9 C 55 % 0 lf 1023,7 hPa 0,0 l/m 2 min 0 min 600 W/m 20,9 km/h (4 Bft) 97,87 %
27.03.2017 11:32 13,4 C 18,9 C 18,3 C 55 % 0 lf 1023,7 hPa 0,0 l/m 2 min 0 min 758 W/m 16,7 km/h (3 Bft) 91,49 %
27.03.2017 11:34 13,5 C 18,9 C 18,3 C 55 % 0 lf 1023,7 hPa 0,0 l/m 2 min 0 min 610 W/m 20,9 km/h (4 Bft) 89,36 %
27.03.2017 11:36 13,6 C 19,4 C 18,3 C 54 % 0 lf 1023,7 hPa 0,0 l/m 2 min 0 min 613 W/m 18,8 km/h (3 Bft) 93,62 %
27.03.2017 11:38 13,6 C 19,4 C 18,3 C 54 % 0 lf 1023,7 hPa 0,0 l/m 2 min 0 min 617 W/m 20,9 km/h (4 Bft) 93,62 %
27.03.2017 11:40 13,7 C 19,4 C 18,9 C 54 % 0 lf 1023,7 hPa 0,0 l/m 2 min 0 min 620 W/m 18,8 km/h (3 Bft) 93,48 %
27.03.2017 11:42 13,7 C 19,4 C 19,4 C 54 % 0 lf 1023,8 hPa 0,0 l/m 2 min 0 min 625 W/m 20,9 km/h (4 Bft) 91,49 %
27.03.2017 11:44 13,8 C 19,4 C 18,9 C 53 % 0 lf 1023,7 hPa 0,0 l/m 2 min 0 min 627 W/m 23,0 km/h (4 Bft) 91,49 %
27.03.2017 11:46 13,9 C 21,7 C 18,9 C 53 % 0 lf 1023,7 hPa 0,0 l/m 2 min 0 min 630 W/m 16,7 km/h (3 Bft) 93,62 %
27.03.2017 11:48 13,9 C 19,4 C 19,4 C 53 % 0 lf 1023,7 hPa 0,0 l/m 2 min 0 min 631 W/m 16,7 km/h (3 Bft) 93,62 %
27.03.2017 11:50 14,0 C 18,3 C 20,0 C 52 % 0 lf 1023,7 hPa 0,0 l/m 2 min 0 min 630 W/m 18,8 km/h (3 Bft) 91,49 %
27.03.2017 11:52 14,1 C 18,9 C 20,0 C 52 % 0 lf 1023,6 hPa 0,0 l/m 2 min 0 min 631 W/m 18,8 km/h (3 Bft) 91,30 %
27.03.2017 11:54 14,2 C 20,0 C 20,6 C 53 % 0 lf 1023,6 hPa 0,0 l/m 2 min 0 min 632 W/m 10,5 km/h (2 Bft) 95,74 %
27.03.2017 11:56 14,2 C 20,0 C 20,6 C 52 % 0 lf 1023,6 hPa 0,0 l/m 2 min 0 min 635 W/m 18,8 km/h (3 Bft) 91,49 %
27.03.2017 11:58 14,2 C 18,9 C 20,6 C 52 % 0 lf 1023,7 hPa 0,0 l/m 2 min 0 min 638 W/m 18,8 km/h (3 Bft) 93,62 %
27.03.2017 12:00 14,2 C 20,0 C 20,6 C 52 % 0 lf 1023,6 hPa 0,0 l/m 2 min 0 min 634 W/m 14,6 km/h (3 Bft) 93,62 %
27.03.2017 12:02 14,2 C 21,1 C 20,0 C 52 % 0 lf 1023,6 hPa 0,0 l/m 2 min 0 min 640 W/m 18,8 km/h (3 Bft) 95,65 %
27.03.2017 12:04 14,3 C 21,1 C 20,6 C 52 % 0 lf 1023,6 hPa 0,0 l/m 2 min 0 min 641 W/m 18,8 km/h (3 Bft) 95,74 %
27.03.2017 12:06 14,4 C 20,6 C 20,6 C 52 % 0 lf 1023,5 hPa 0,0 l/m 2 min 0 min 646 W/m 16,7 km/h (3 Bft) 91,49 %
27.03.2017 12:08 14,5 C 20,0 C 21,1 C 51 % 0 lf 1023,6 hPa 0,0 l/m 2 min 0 min 647 W/m 23,0 km/h (4 Bft) 95,74 %
27.03.2017 12:10 14,6 C 19,4 C 20,6 C 50 % 0 lf 1023,6 hPa 0,0 l/m 2 min 0 min 651 W/m 27,2 km/h (4 Bft) 95,74 %
27.03.2017 12:12 14,6 C 20,0 C 20,6 C 51 % 0 lf 1023,5 hPa 0,0 l/m 2 min 0 min 653 W/m 18,8 km/h (3 Bft) 95,74 %
27.03.2017 12:14 14,7 C 21,1 C 20,0 C 52 % 0 lf 1023,5 hPa 0,0 l/m 2 min 0 min 661 W/m 16,7 km/h (3 Bft) 91,30 %
27.03.2017 12:16 14,7 C 22,2 C 19,4 C 52 % 0 lf 1023,5 hPa 0,0 l/m 2 min 0 min 663 W/m 14,6 km/h (3 Bft) 93,62 %
27.03.2017 12:18 14,8 C 21,1 C 19,4 C 51 % 0 lf 1023,5 hPa 0,0 l/m 2 min 0 min 666 W/m 14,6 km/h (3 Bft) 95,74 %
27.03.2017 12:20 14,9 C 21,7 C 18,3 C 51 % 0 lf 1023,4 hPa 0,0 l/m 2 min 0 min 669 W/m 20,9 km/h (4 Bft) 97,87 %
27.03.2017 12:22 15,0 C 20,6 C 18,3 C 50 % 0 lf 1023,4 hPa 0,0 l/m 2 min 0 min 711 W/m 16,7 km/h (3 Bft) 95,74 %
27.03.2017 12:24 15,1 C 21,7 C 17,8 C 50 % 0 lf 1023,5 hPa 0,0 l/m 2 min 0 min 667 W/m 10,5 km/h (2 Bft) 97,87 %
27.03.2017 12:26 15,2 C 22,2 C 16,7 C 51 % 0 lf 1023,4 hPa 0,0 l/m 2 min 0 min 669 W/m 14,6 km/h (3 Bft) 91,30 %
27.03.2017 12:28 15,2 C 21,7 C 16,7 C 51 % 0 lf 1023,4 hPa 0,0 l/m 2 min 0 min 671 W/m 12,6 km/h (3 Bft) 95,74 %
27.03.2017 12:30 15,3 C 22,2 C 16,7 C 51 % 0 lf 1023,4 hPa 0,0 l/m 2 min 0 min 673 W/m 25,1 km/h (4 Bft) 100,00 %
27.03.2017 12:32 15,4 C 22,2 C 16,1 C 50 % 0 lf 1023,4 hPa 0,0 l/m 2 min 0 min 674 W/m 18,8 km/h (3 Bft) 100,00 %
27.03.2017 12:34 15,4 C 21,1 C 16,1 C 49 % 0 lf 1023,4 hPa 0,0 l/m 2 min 0 min 676 W/m 18,8 km/h (3 Bft) 100,00 %
27.03.2017 12:36 15,5 C 21,1 C 16,7 C 49 % 0 lf 1023,3 hPa 0,0 l/m 2 min 0 min 678 W/m 20,9 km/h (4 Bft) 97,87 %
27.03.2017 12:38 15,6 C 21,7 C 16,7 C 48 % 0 lf 1023,4 hPa 0,0 l/m 2 min 0 min 679 W/m 18,8 km/h (3 Bft) 97,83 %
27.03.2017 12:40 15,6 C 21,1 C 16,7 C 48 % 0 lf 1023,3 hPa 0,0 l/m 2 min 0 min 689 W/m 23,0 km/h (4 Bft) 91,49 %
27.03.2017 12:42 15,7 C 21,7 C 16,1 C 48 % 0 lf 1023,4 hPa 0,0 l/m 2 min 0 min 691 W/m 18,8 km/h (3 Bft) 97,87 %
27.03.2017 12:44 15,7 C 23,3 C 15,6 C 48 % 0 lf 1023,4 hPa 0,0 l/m 2 min 0 min 697 W/m 18,8 km/h (3 Bft) 95,74 %
27.03.2017 12:46 15,8 C 23,3 C 16,1 C 48 % 0 lf 1023,3 hPa 0,0 l/m 2 min 0 min 694 W/m 16,7 km/h (3 Bft) 100,00 %
27.03.2017 12:48 15,8 C 21,1 C 16,7 C 47 % 0 lf 1023,3 hPa 0,0 l/m 2 min 0 min 696 W/m 23,0 km/h (4 Bft) 100,00 %
27.03.2017 12:50 15,9 C 20,6 C 17,2 C 46 % 0 lf 1023,3 hPa 0,0 l/m 2 min 0 min 696 W/m 23,0 km/h (4 Bft) 100,00 %
27.03.2017 12:52 15,8 C 19,4 C 17,8 C 45 % 0 lf 1023,3 hPa 0,0 l/m 2 min 0 min 699 W/m 12,6 km/h (3 Bft) 100,00 %
27.03.2017 12:54 15,8 C 21,7 C 17,8 C 47 % 0 lf 1023,3 hPa 0,0 l/m 2 min 0 min 701 W/m 18,8 km/h (3 Bft) 100,00 %
27.03.2017 12:56 15,8 C 21,7 C 16,7 C 46 % 0 lf 1023,3 hPa 0,0 l/m 2 min 0 min 701 W/m 23,0 km/h (4 Bft) 97,87 %
27.03.2017 12:58 15,8 C 21,7 C 16,1 C 45 % 0 lf 1023,2 hPa 0,0 l/m 2 min 0 min 704 W/m 20,9 km/h (4 Bft) 97,87 %
27.03.2017 13:00 15,9 C 21,7 C 16,1 C 45 % 0 lf 1023,3 hPa 0,0 l/m 2 min 0 min 705 W/m 16,7 km/h (3 Bft) 100,00 %
27.03.2017 13:02 15,9 C 21,7 C 15,6 C 45 % 0 lf 1023,3 hPa 0,0 l/m 2 min 0 min 708 W/m 14,6 km/h (3 Bft) 95,65 %
27.03.2017 13:04 15,9 C 21,1 C 16,1 C 45 % 0 lf 1023,3 hPa 0,0 l/m 2 min 0 min 706 W/m 20,9 km/h (4 Bft) 100,00 %
27.03.2017 13:06 15,9 C 22,2 C 15,6 C 45 % 0 lf 1023,3 hPa 0,0 l/m 2 min 0 min 705 W/m 25,1 km/h (4 Bft) 100,00 %
27.03.2017 13:08 16,0 C 22,2 C 15,6 C 45 % 0 lf 1023,3 hPa 0,0 l/m 2 min 0 min 710 W/m 29,3 km/h (5 Bft) 100,00 %
27.03.2017 13:10 16,1 C 23,9 C 15,6 C 47 % 0 lf 1023,3 hPa 0,0 l/m 2 min 0 min 712 W/m 20,9 km/h (4 Bft) 97,87 %
27.03.2017 13:12 16,1 C 21,1 C 15,6 C 45 % 0 lf 1023,3 hPa 0,0 l/m 2 min 0 min 711 W/m 20,9 km/h (4 Bft) 100,00 %
27.03.2017 13:14 16,2 C 22,2 C 15,6 C 44 % 0 lf 1023,3 hPa 0,0 l/m 2 min 0 min 714 W/m 27,2 km/h (4 Bft) 97,87 %
27.03.2017 13:16 16,2 C 21,1 C 15,6 C 43 % 0 lf 1023,2 hPa 0,0 l/m 2 min 0 min 711 W/m 25,1 km/h (4 Bft) 100,00 %
27.03.2017 13:18 16,2 C 22,8 C 15,0 C 44 % 0 lf 1023,2 hPa 0,0 l/m 2 min 0 min 713 W/m 35,6 km/h (5 Bft) 100,00 %
27.03.2017 13:20 16,2 C 22,2 C 15,0 C 43 % 0 lf 1023,2 hPa 0,0 l/m 2 min 0 min 711 W/m 27,2 km/h (4 Bft) 97,87 %
27.03.2017 13:22 16,3 C 22,2 C 15,0 C 43 % 0 lf 1023,2 hPa 0,0 l/m 2 min 0 min 712 W/m 29,3 km/h (5 Bft) 100,00 %
27.03.2017 13:24 16,3 C 22,2 C 15,0 C 43 % 0 lf 1023,2 hPa 0,0 l/m 2 min 0 min 713 W/m 25,1 km/h (4 Bft) 97,83 %
27.03.2017 13:26 16,3 C 21,1 C 15,0 C 43 % 0 lf 1023,2 hPa 0,0 l/m 2 min 0 min 714 W/m 29,3 km/h (5 Bft) 100,00 %
27.03.2017 13:28 16,3 C 20,6 C 15,0 C 43 % 0 lf 1023,2 hPa 0,0 l/m 2 min 0 min 710 W/m 31,4 km/h (5 Bft) 97,87 %
27.03.2017 13:30 16,3 C 21,1 C 15,0 C 43 % 0 lf 1023,2 hPa 0,0 l/m 2 min 0 min 713 W/m 29,3 km/h (5 Bft) 97,87 %
27.03.2017 13:32 16,3 C 21,7 C 15,0 C 44 % 0 lf 1023,1 hPa 0,0 l/m 2 min 0 min 712 W/m 31,4 km/h (5 Bft) 95,74 %
27.03.2017 13:34 16,3 C 21,7 C 15,0 C 42 % 0 lf 1023,1 hPa 0,0 l/m 2 min 0 min 709 W/m 31,4 km/h (5 Bft) 95,74 %
27.03.2017 13:36 16,3 C 20,6 C 15,0 C 42 % 0 lf 1023,1 hPa 0,0 l/m 2 min 0 min 708 W/m 25,1 km/h (4 Bft) 91,30 %
27.03.2017 13:38 16,3 C 20,6 C 15,0 C 43 % 0 lf 1023,0 hPa 0,0 l/m 2 min 0 min 710 W/m 29,3 km/h (5 Bft) 97,87 %
27.03.2017 13:40 16,3 C 20,6 C 15,0 C 43 % 0 lf 1023,0 hPa 0,0 l/m 2 min 0 min 708 W/m 25,1 km/h (4 Bft) 97,87 %
27.03.2017 13:42 16,3 C 22,2 C 15,0 C 46 % 0 lf 1023,0 hPa 0,0 l/m 2 min 0 min 708 W/m 27,2 km/h (4 Bft) 95,74 %
27.03.2017 13:44 16,3 C 21,1 C 15,0 C 42 % 0 lf 1023,0 hPa 0,0 l/m 2 min 0 min 707 W/m 41,8 km/h (6 Bft) 95,74 %
27.03.2017 13:46 16,2 C 20,6 C 14,4 C 42 % 0 lf 1022,9 hPa 0,0 l/m 2 min 0 min 708 W/m 27,2 km/h (4 Bft) 95,74 %
27.03.2017 13:48 16,3 C 22,8 C 15,0 C 44 % 0 lf 1022,8 hPa 0,0 l/m 2 min 0 min 710 W/m 20,9 km/h (4 Bft) 91,30 %
27.03.2017 13:50 16,3 C 22,8 C 15,0 C 44 % 0 lf 1022,8 hPa 0,0 l/m 2 min 0 min 710 W/m 20,9 km/h (4 Bft) 95,74 %
27.03.2017 13:52 16,3 C 22,8 C 15,0 C 43 % 0 lf 1022,8 hPa 0,0 l/m 2 min 0 min 700 W/m 20,9 km/h (4 Bft) 95,74 %
27.03.2017 13:54 16,4 C 21,7 C 15,0 C 43 % 0 lf 1022,7 hPa 0,0 l/m 2 min 0 min 712 W/m 27,2 km/h (4 Bft) 95,74 %
27.03.2017 13:56 16,5 C 22,8 C 15,0 C 45 % 0 lf 1022,7 hPa 0,0 l/m 2 min 0 min 709 W/m 16,7 km/h (3 Bft) 91,49 %
27.03.2017 13:58 16,6 C 23,3 C 15,0 C 44 % 0 lf 1022,7 hPa 0,0 l/m 2 min 0 min 708 W/m 27,2 km/h (4 Bft) 95,74 %
27.03.2017 14:00 16,7 C 22,8 C 15,0 C 42 % 0 lf 1022,8 hPa 0,0 l/m 2 min 0 min 708 W/m 25,1 km/h (4 Bft) 91,30 %
27.03.2017 14:02 16,7 C 23,3 C 15,0 C 43 % 0 lf 1022,7 hPa 0,0 l/m 2 min 0 min 708 W/m 23,0 km/h (4 Bft) 93,62 %
27.03.2017 14:04 16,7 C 22,2 C 15,0 C 43 % 0 lf 1022,7 hPa 0,0 l/m 2 min 0 min 721 W/m 23,0 km/h (4 Bft) 95,74 %
27.03.2017 14:06 16,8 C 22,8 C 15,0 C 42 % 0 lf 1022,8 hPa 0,0 l/m 2 min 0 min 699 W/m 23,0 km/h (4 Bft) 89,36 %
27.03.2017 14:08 16,8 C 22,2 C 15,0 C 42 % 0 lf 1022,7 hPa 0,0 l/m 2 min 0 min 750 W/m 16,7 km/h (3 Bft) 95,74 %
27.03.2017 14:10 16,8 C 23,3 C 15,0 C 42 % 0 lf 1022,6 hPa 0,0 l/m 2 min 0 min 707 W/m 31,4 km/h (5 Bft) 95,74 %
27.03.2017 14:12 16,9 C 22,2 C 15,0 C 40 % 0 lf 1022,7 hPa 0,0 l/m 2 min 0 min 704 W/m 31,4 km/h (5 Bft) 95,65 %
27.03.2017 14:14 16,9 C 21,7 C 15,0 C 40 % 0 lf 1022,6 hPa 0,0 l/m 2 min 0 min 702 W/m 27,2 km/h (4 Bft) 95,74 %
27.03.2017 14:16 16,9 C 22,2 C 15,0 C 41 % 0 lf 1022,6 hPa 0,0 l/m 2 min 0 min 704 W/m 31,4 km/h (5 Bft) 95,74 %
27.03.2017 14:18 16,9 C 23,3 C 15,0 C 43 % 0 lf 1022,6 hPa 0,0 l/m 2 min 0 min 701 W/m 25,1 km/h (4 Bft) 93,62 %
27.03.2017 14:20 16,9 C 22,8 C 15,0 C 41 % 0 lf 1022,5 hPa 0,0 l/m 2 min 0 min 699 W/m 27,2 km/h (4 Bft) 95,74 %
27.03.2017 14:22 17,0 C 23,3 C 15,0 C 41 % 0 lf 1022,5 hPa 0,0 l/m 2 min 0 min 698 W/m 25,1 km/h (4 Bft) 91,49 %
27.03.2017 14:24 17,0 C 22,2 C 15,0 C 41 % 0 lf 1022,5 hPa 0,0 l/m 2 min 0 min 696 W/m 23,0 km/h (4 Bft) 91,30 %
27.03.2017 14:26 17,1 C 23,3 C 15,6 C 42 % 0 lf 1022,5 hPa 0,0 l/m 2 min 0 min 860 W/m 18,8 km/h (3 Bft) 91,49 %
27.03.2017 14:28 17,1 C 23,3 C 15,6 C 42 % 0 lf 1022,5 hPa 0,0 l/m 2 min 0 min 689 W/m 27,2 km/h (4 Bft) 93,62 %
27.03.2017 14:30 17,2 C 23,9 C 15,6 C 41 % 0 lf 1022,4 hPa 0,0 l/m 2 min 0 min 687 W/m 18,8 km/h (3 Bft) 91,49 %
27.03.2017 14:32 17,3 C 23,3 C 15,0 C 41 % 0 lf 1022,4 hPa 0,0 l/m 2 min 0 min 698 W/m 23,0 km/h (4 Bft) 89,36 %
27.03.2017 14:34 17,3 C 22,8 C 15,0 C 40 % 0 lf 1022,4 hPa 0,0 l/m 2 min 0 min 735 W/m 23,0 km/h (4 Bft) 93,62 %
27.03.2017 14:36 17,3 C 22,8 C 15,0 C 40 % 0 lf 1022,3 hPa 0,0 l/m 2 min 0 min 846 W/m 23,0 km/h (4 Bft) 91,30 %
27.03.2017 14:38 17,3 C 22,2 C 15,0 C 40 % 0 lf 1022,1 hPa 0,0 l/m 2 min 0 min 764 W/m 16,7 km/h (3 Bft) 91,49 %
27.03.2017 14:40 17,3 C 22,8 C 15,0 C 41 % 0 lf 1022,2 hPa 0,0 l/m 2 min 0 min 677 W/m 16,7 km/h (3 Bft) 91,49 %
27.03.2017 14:42 17,3 C 22,8 C 15,0 C 40 % 0 lf 1022,1 hPa 0,0 l/m 2 min 0 min 674 W/m 27,2 km/h (4 Bft) 95,74 %
27.03.2017 14:44 17,3 C 22,2 C 15,0 C 40 % 0 lf 1022,1 hPa 0,0 l/m 2 min 0 min 675 W/m 29,3 km/h (5 Bft) 91,49 %
27.03.2017 14:46 17,3 C 22,2 C 15,0 C 40 % 0 lf 1022,1 hPa 0,0 l/m 2 min 0 min 674 W/m 25,1 km/h (4 Bft) 93,62 %
27.03.2017 14:48 17,3 C 22,8 C 15,0 C 40 % 0 lf 1022,0 hPa 0,0 l/m 2 min 0 min 668 W/m 20,9 km/h (4 Bft) 95,65 %
27.03.2017 14:50 17,3 C 23,3 C 15,0 C 40 % 0 lf 1022,0 hPa 0,0 l/m 2 min 0 min 667 W/m 23,0 km/h (4 Bft) 93,62 %
27.03.2017 14:52 17,3 C 22,2 C 15,6 C 41 % 0 lf 1021,9 hPa 0,0 l/m 2 min 0 min 634 W/m 23,0 km/h (4 Bft) 91,49 %
27.03.2017 14:54 17,3 C 21,1 C 15,6 C 40 % 0 lf 1021,8 hPa 0,0 l/m 2 min 0 min 642 W/m 25,1 km/h (4 Bft) 95,74 %
27.03.2017 14:56 17,3 C 22,8 C 15,6 C 41 % 0 lf 1021,9 hPa 0,0 l/m 2 min 0 min 666 W/m 25,1 km/h (4 Bft) 91,49 %
27.03.2017 14:58 17,3 C 23,9 C 15,6 C 41 % 0 lf 1021,8 hPa 0,0 l/m 2 min 0 min 667 W/m 18,8 km/h (3 Bft) 93,48 %
27.03.2017 15:00 17,4 C 24,4 C 15,6 C 41 % 0 lf 1021,8 hPa 0,0 l/m 2 min 0 min 660 W/m 20,9 km/h (4 Bft) 95,74 %
27.03.2017 15:02 17,4 C 23,9 C 15,6 C 40 % 0 lf 1021,7 hPa 0,0 l/m 2 min 0 min 658 W/m 20,9 km/h (4 Bft) 95,74 %
27.03.2017 15:04 17,4 C 22,2 C 15,6 C 41 % 0 lf 1021,7 hPa 0,0 l/m 2 min 0 min 654 W/m 27,2 km/h (4 Bft) 93,62 %
27.03.2017 15:06 17,5 C 22,8 C 15,6 C 40 % 0 lf 1021,6 hPa 0,0 l/m 2 min 0 min 650 W/m 20,9 km/h (4 Bft) 97,87 %
27.03.2017 15:08 17,5 C 23,9 C 16,1 C 40 % 0 lf 1021,6 hPa 0,0 l/m 2 min 0 min 649 W/m 23,0 km/h (4 Bft) 95,74 %
27.03.2017 15:10 17,6 C 23,3 C 17,8 C 40 % 0 lf 1021,6 hPa 0,0 l/m 2 min 0 min 644 W/m 23,0 km/h (4 Bft) 100,00 %
27.03.2017 15:12 17,6 C 22,8 C 18,9 C 39 % 0 lf 1021,5 hPa 0,0 l/m 2 min 0 min 641 W/m 25,1 km/h (4 Bft) 95,74 %
27.03.2017 15:14 17,7 C 23,3 C 19,4 C 39 % 0 lf 1021,6 hPa 0,0 l/m 2 min 0 min 633 W/m 18,8 km/h (3 Bft) 100,00 %
27.03.2017 15:16 17,7 C 23,3 C 19,4 C 40 % 0 lf 1021,5 hPa 0,0 l/m 2 min 0 min 632 W/m 35,6 km/h (5 Bft) 97,87 %
27.03.2017 15:18 17,7 C 23,3 C 18,9 C 39 % 0 lf 1021,5 hPa 0,0 l/m 2 min 0 min 634 W/m 31,4 km/h (5 Bft) 95,74 %
27.03.2017 15:20 17,8 C 23,3 C 18,9 C 39 % 0 lf 1021,5 hPa 0,0 l/m 2 min 0 min 631 W/m 20,9 km/h (4 Bft) 100,00 %
27.03.2017 15:22 17,8 C 23,3 C 19,4 C 39 % 0 lf 1021,5 hPa 0,0 l/m 2 min 0 min 630 W/m 23,0 km/h (4 Bft) 95,65 %
27.03.2017 15:24 17,9 C 22,8 C 18,9 C 38 % 0 lf 1021,5 hPa 0,0 l/m 2 min 0 min 627 W/m 29,3 km/h (5 Bft) 93,62 %
27.03.2017 15:26 17,9 C 22,8 C 19,4 C 39 % 0 lf 1021,4 hPa 0,0 l/m 2 min 0 min 627 W/m 20,9 km/h (4 Bft) 100,00 %
27.03.2017 15:28 17,9 C 23,3 C 20,6 C 40 % 0 lf 1021,4 hPa 0,0 l/m 2 min 0 min 627 W/m 18,8 km/h (3 Bft) 97,87 %
27.03.2017 15:30 18,0 C 24,4 C 21,1 C 40 % 0 lf 1021,4 hPa 0,0 l/m 2 min 0 min 622 W/m 25,1 km/h (4 Bft) 97,87 %
27.03.2017 15:32 18,1 C 25,0 C 20,6 C 41 % 0 lf 1021,3 hPa 0,0 l/m 2 min 0 min 619 W/m 31,4 km/h (5 Bft) 100,00 %
27.03.2017 15:34 18,1 C 23,9 C 18,9 C 39 % 0 lf 1021,3 hPa 0,0 l/m 2 min 0 min 609 W/m 31,4 km/h (5 Bft) 97,83 %
27.03.2017 15:36 18,1 C 22,8 C 19,4 C 39 % 0 lf 1021,4 hPa 0,0 l/m 2 min 0 min 607 W/m 27,2 km/h (4 Bft) 100,00 %
27.03.2017 15:38 18,1 C 23,9 C 20,0 C 39 % 0 lf 1021,3 hPa 0,0 l/m 2 min 0 min 606 W/m 16,7 km/h (3 Bft) 100,00 %
27.03.2017 15:40 18,1 C 23,9 C 19,4 C 39 % 0 lf 1021,3 hPa 0,0 l/m 2 min 0 min 598 W/m 18,8 km/h (3 Bft) 97,87 %
27.03.2017 15:42 18,1 C 23,3 C 18,3 C 39 % 0 lf 1021,3 hPa 0,0 l/m 2 min 0 min 585 W/m 29,3 km/h (5 Bft) 100,00 %
27.03.2017 15:44 18,2 C 23,3 C 18,3 C 39 % 0 lf 1021,2 hPa 0,0 l/m 2 min 0 min 580 W/m 25,1 km/h (4 Bft) 97,87 %
27.03.2017 15:46 18,2 C 25,6 C 17,8 C 41 % 0 lf 1021,2 hPa 0,0 l/m 2 min 0 min 584 W/m 14,6 km/h (3 Bft) 97,83 %
27.03.2017 15:48 18,3 C 25,6 C 17,8 C 40 % 0 lf 1021,1 hPa 0,0 l/m 2 min 0 min 584 W/m 20,9 km/h (4 Bft) 100,00 %
27.03.2017 15:50 18,3 C 24,4 C 17,2 C 39 % 0 lf 1021,1 hPa 0,0 l/m 2 min 0 min 581 W/m 20,9 km/h (4 Bft) 97,87 %
27.03.2017 15:52 18,4 C 24,4 C 17,2 C 39 % 0 lf 1021,0 hPa 0,0 l/m 2 min 0 min 571 W/m 18,8 km/h (3 Bft) 95,74 %
27.03.2017 15:54 18,4 C 24,4 C 16,7 C 38 % 0 lf 1021,0 hPa 0,0 l/m 2 min 0 min 564 W/m 16,7 km/h (3 Bft) 100,00 %
27.03.2017 15:56 18,4 C 23,9 C 16,7 C 38 % 0 lf 1021,0 hPa 0,0 l/m 2 min 0 min 562 W/m 33,5 km/h (5 Bft) 100,00 %
27.03.2017 15:58 18,5 C 23,9 C 16,7 C 38 % 0 lf 1020,9 hPa 0,0 l/m 2 min 0 min 564 W/m 23,0 km/h (4 Bft) 97,83 %
27.03.2017 16:00 18,5 C 23,9 C 16,1 C 38 % 0 lf 1020,9 hPa 0,0 l/m 2 min 0 min 563 W/m 18,8 km/h (3 Bft) 100,00 %
27.03.2017 16:02 18,6 C 23,9 C 16,7 C 39 % 0 lf 1020,9 hPa 0,0 l/m 2 min 0 min 561 W/m 20,9 km/h (4 Bft) 97,87 %
27.03.2017 16:04 18,6 C 23,3 C 16,7 C 39 % 0 lf 1020,9 hPa 0,0 l/m 2 min 0 min 555 W/m 20,9 km/h (4 Bft) 97,87 %
27.03.2017 16:06 18,6 C 23,9 C 16,7 C 39 % 0 lf 1020,9 hPa 0,0 l/m 2 min 0 min 551 W/m 23,0 km/h (4 Bft) 100,00 %
27.03.2017 16:08 18,6 C 23,3 C 16,7 C 38 % 0 lf 1020,9 hPa 0,0 l/m 2 min 0 min 547 W/m 23,0 km/h (4 Bft) 91,30 %
27.03.2017 16:10 18,6 C 23,3 C 16,7 C 38 % 0 lf 1020,8 hPa 0,0 l/m 2 min 0 min 545 W/m 23,0 km/h (4 Bft) 97,87 %
27.03.2017 16:12 18,6 C 22,2 C 16,7 C 37 % 0 lf 1020,8 hPa 0,0 l/m 2 min 0 min 539 W/m 27,2 km/h (4 Bft) 97,87 %
27.03.2017 16:14 18,6 C 22,8 C 16,7 C 38 % 0 lf 1020,7 hPa 0,0 l/m 2 min 0 min 537 W/m 20,9 km/h (4 Bft) 93,62 %
27.03.2017 16:16 18,5 C 23,3 C 16,7 C 38 % 0 lf 1020,6 hPa 0,0 l/m 2 min 0 min 535 W/m 31,4 km/h (5 Bft) 97,87 %
27.03.2017 16:18 18,5 C 23,9 C 16,7 C 38 % 0 lf 1020,6 hPa 0,0 l/m 2 min 0 min 530 W/m 23,0 km/h (4 Bft) 97,87 %
27.03.2017 16:20 18,6 C 23,3 C 16,7 C 38 % 0 lf 1020,5 hPa 0,0 l/m 2 min 0 min 526 W/m 18,8 km/h (3 Bft) 93,48 %
27.03.2017 16:22 18,6 C 23,9 C 16,7 C 38 % 0 lf 1020,6 hPa 0,0 l/m 2 min 0 min 521 W/m 23,0 km/h (4 Bft) 97,87 %
27.03.2017 16:24 18,6 C 22,8 C 16,7 C 37 % 0 lf 1020,6 hPa 0,0 l/m 2 min 0 min 514 W/m 23,0 km/h (4 Bft) 97,87 %
27.03.2017 16:26 18,6 C 23,9 C 16,7 C 38 % 0 lf 1020,6 hPa 0,0 l/m 2 min 0 min 514 W/m 20,9 km/h (4 Bft) 97,87 %
27.03.2017 16:28 18,6 C 23,9 C 16,7 C 38 % 0 lf 1020,6 hPa 0,0 l/m 2 min 0 min 514 W/m 25,1 km/h (4 Bft) 97,87 %
27.03.2017 16:30 18,6 C 25,0 C 16,7 C 38 % 0 lf 1020,6 hPa 0,0 l/m 2 min 0 min 511 W/m 18,8 km/h (3 Bft) 97,87 %
27.03.2017 16:32 18,7 C 23,9 C 16,7 C 37 % 0 lf 1020,6 hPa 0,0 l/m 2 min 0 min 504 W/m 25,1 km/h (4 Bft) 93,48 %
27.03.2017 16:34 18,7 C 23,3 C 16,7 C 37 % 0 lf 1020,6 hPa 0,0 l/m 2 min 0 min 499 W/m 29,3 km/h (5 Bft) 97,87 %
27.03.2017 16:36 18,7 C 23,9 C 16,1 C 37 % 0 lf 1020,5 hPa 0,0 l/m 2 min 0 min 496 W/m 20,9 km/h (4 Bft) 95,74 %
27.03.2017 16:38 18,7 C 23,3 C 16,7 C 37 % 0 lf 1020,5 hPa 0,0 l/m 2 min 0 min 492 W/m 20,9 km/h (4 Bft) 93,62 %
27.03.2017 16:40 18,7 C 23,3 C 16,7 C 37 % 0 lf 1020,4 hPa 0,0 l/m 2 min 0 min 476 W/m 14,6 km/h (3 Bft) 97,87 %
27.03.2017 16:42 18,7 C 23,9 C 16,7 C 37 % 0 lf 1020,4 hPa 0,0 l/m 2 min 0 min 479 W/m 25,1 km/h (4 Bft) 95,74 %
27.03.2017 16:44 18,7 C 23,9 C 16,7 C 37 % 0 lf 1020,3 hPa 0,0 l/m 2 min 0 min 477 W/m 23,0 km/h (4 Bft) 95,65 %
27.03.2017 16:46 18,8 C 22,8 C 16,7 C 37 % 0 lf 1020,2 hPa 0,0 l/m 2 min 0 min 473 W/m 20,9 km/h (4 Bft) 97,87 %
27.03.2017 16:48 18,8 C 23,3 C 16,7 C 37 % 0 lf 1020,2 hPa 0,0 l/m 2 min 0 min 469 W/m 29,3 km/h (5 Bft) 100,00 %
27.03.2017 16:50 18,8 C 23,3 C 16,7 C 37 % 0 lf 1020,1 hPa 0,0 l/m 2 min 0 min 464 W/m 20,9 km/h (4 Bft) 93,62 %
27.03.2017 16:52 18,8 C 23,9 C 16,7 C 37 % 0 lf 1020,1 hPa 0,0 l/m 2 min 0 min 459 W/m 25,1 km/h (4 Bft) 93,62 %
27.03.2017 16:54 18,8 C 23,9 C 16,7 C 37 % 0 lf 1020,2 hPa 0,0 l/m 2 min 0 min 454 W/m 27,2 km/h (4 Bft) 89,36 %
27.03.2017 16:56 18,8 C 23,3 C 16,7 C 36 % 0 lf 1020,1 hPa 0,0 l/m 2 min 0 min 449 W/m 16,7 km/h (3 Bft) 91,30 %
27.03.2017 16:58 18,8 C 23,9 C 16,7 C 36 % 0 lf 1020,1 hPa 0,0 l/m 2 min 0 min 445 W/m 20,9 km/h (4 Bft) 93,62 %
27.03.2017 17:00 18,9 C 24,4 C 16,7 C 37 % 0 lf 1020,2 hPa 0,0 l/m 2 min 0 min 438 W/m 27,2 km/h (4 Bft) 93,62 %
27.03.2017 17:02 18,9 C 24,4 C 16,7 C 36 % 0 lf 1020,1 hPa 0,0 l/m 2 min 0 min 432 W/m 27,2 km/h (4 Bft) 93,62 %
27.03.2017 17:04 18,9 C 23,9 C 16,7 C 36 % 0 lf 1020,1 hPa 0,0 l/m 2 min 0 min 429 W/m 25,1 km/h (4 Bft) 91,49 %
27.03.2017 17:06 18,9 C 23,3 C 16,7 C 35 % 0 lf 1020,0 hPa 0,0 l/m 2 min 0 min 425 W/m 18,8 km/h (3 Bft) 93,62 %
27.03.2017 17:08 18,9 C 23,9 C 16,7 C 35 % 0 lf 1020,0 hPa 0,0 l/m 2 min 0 min 419 W/m 20,9 km/h (4 Bft) 91,30 %
27.03.2017 17:10 19,0 C 23,9 C 16,7 C 36 % 0 lf 1020,0 hPa 0,0 l/m 2 min 0 min 413 W/m 16,7 km/h (3 Bft) 93,62 %
27.03.2017 17:12 19,0 C 23,3 C 16,7 C 35 % 0 lf 1020,0 hPa 0,0 l/m 2 min 0 min 408 W/m 27,2 km/h (4 Bft) 87,23 %
27.03.2017 17:14 18,9 C 22,8 C 16,7 C 34 % 0 lf 1019,9 hPa 0,0 l/m 2 min 0 min 403 W/m 20,9 km/h (4 Bft) 91,49 %
27.03.2017 17:16 18,9 C 23,3 C 16,7 C 35 % 0 lf 1020,0 hPa 0,0 l/m 2 min 0 min 399 W/m 18,8 km/h (3 Bft) 93,62 %
27.03.2017 17:18 19,0 C 23,3 C 16,7 C 35 % 0 lf 1020,0 hPa 0,0 l/m 2 min 0 min 393 W/m 20,9 km/h (4 Bft) 89,36 %
27.03.2017 17:20 19,0 C 23,3 C 16,7 C 34 % 0 lf 1019,9 hPa 0,0 l/m 2 min 0 min 388 W/m 23,0 km/h (4 Bft) 93,48 %
27.03.2017 17:22 19,0 C 23,3 C 16,7 C 35 % 0 lf 1019,9 hPa 0,0 l/m 2 min 0 min 382 W/m 20,9 km/h (4 Bft) 91,49 %
27.03.2017 17:24 19,0 C 22,8 C 16,7 C 34 % 0 lf 1019,9 hPa 0,0 l/m 2 min 0 min 376 W/m 20,9 km/h (4 Bft) 95,74 %
27.03.2017 17:26 19,0 C 23,3 C 16,1 C 35 % 0 lf 1019,9 hPa 0,0 l/m 2 min 0 min 371 W/m 18,8 km/h (3 Bft) 91,49 %
27.03.2017 17:28 19,0 C 23,3 C 16,1 C 35 % 0 lf 1019,9 hPa 0,0 l/m 2 min 0 min 366 W/m 20,9 km/h (4 Bft) 93,62 %
27.03.2017 17:30 19,0 C 22,8 C 16,1 C 34 % 0 lf 1019,8 hPa 0,0 l/m 2 min 0 min 360 W/m 20,9 km/h (4 Bft) 93,62 %
27.03.2017 17:32 19,0 C 23,9 C 16,1 C 35 % 0 lf 1019,8 hPa 0,0 l/m 2 min 0 min 355 W/m 20,9 km/h (4 Bft) 95,65 %
27.03.2017 17:34 19,1 C 24,4 C 16,1 C 35 % 0 lf 1019,8 hPa 0,0 l/m 2 min 0 min 351 W/m 16,7 km/h (3 Bft) 95,74 %
27.03.2017 17:36 19,1 C 23,9 C 16,1 C 35 % 0 lf 1019,7 hPa 0,0 l/m 2 min 0 min 344 W/m 18,8 km/h (3 Bft) 93,62 %
27.03.2017 17:38 19,1 C 23,3 C 16,1 C 34 % 0 lf 1019,7 hPa 0,0 l/m 2 min 0 min 339 W/m 29,3 km/h (5 Bft) 95,74 %
27.03.2017 17:40 19,1 C 22,8 C 16,1 C 34 % 0 lf 1019,7 hPa 0,0 l/m 2 min 0 min 334 W/m 20,9 km/h (4 Bft) 93,62 %
27.03.2017 17:42 19,1 C 23,9 C 16,1 C 35 % 0 lf 1019,7 hPa 0,0 l/m 2 min 0 min 327 W/m 18,8 km/h (3 Bft) 93,48 %
27.03.2017 17:44 19,1 C 23,3 C 16,1 C 35 % 0 lf 1019,7 hPa 0,0 l/m 2 min 0 min 320 W/m 20,9 km/h (4 Bft) 97,87 %
27.03.2017 17:46 19,1 C 22,8 C 16,1 C 34 % 0 lf 1019,7 hPa 0,0 l/m 2 min 0 min 312 W/m 23,0 km/h (4 Bft) 97,87 %
27.03.2017 17:48 19,1 C 23,3 C 16,1 C 35 % 0 lf 1019,7 hPa 0,0 l/m 2 min 0 min 306 W/m 18,8 km/h (3 Bft) 100,00 %
27.03.2017 17:50 19,1 C 22,2 C 16,1 C 34 % 0 lf 1019,7 hPa 0,0 l/m 2 min 0 min 299 W/m 23,0 km/h (4 Bft) 95,74 %
27.03.2017 17:52 19,1 C 23,3 C 16,1 C 35 % 0 lf 1019,6 hPa 0,0 l/m 2 min 0 min 292 W/m 18,8 km/h (3 Bft) 100,00 %
27.03.2017 17:54 19,1 C 23,9 C 16,1 C 35 % 0 lf 1019,7 hPa 0,0 l/m 2 min 0 min 286 W/m 16,7 km/h (3 Bft) 100,00 %
27.03.2017 17:56 19,1 C 23,3 C 15,6 C 35 % 0 lf 1019,7 hPa 0,0 l/m 2 min 0 min 280 W/m 23,0 km/h (4 Bft) 97,87 %
27.03.2017 17:58 19,1 C 23,3 C 15,6 C 36 % 0 lf 1019,7 hPa 0,0 l/m 2 min 0 min 272 W/m 14,6 km/h (3 Bft) 100,00 %
27.03.2017 18:00 19,1 C 23,3 C 15,6 C 35 % 0 lf 1019,7 hPa 0,0 l/m 2 min 0 min 267 W/m 18,8 km/h (3 Bft) 97,87 %
27.03.2017 18:02 19,1 C 22,8 C 16,1 C 34 % 0 lf 1019,7 hPa 0,0 l/m 2 min 0 min 260 W/m 18,8 km/h (3 Bft) 100,00 %
27.03.2017 18:04 19,1 C 23,3 C 15,6 C 36 % 0 lf 1019,6 hPa 0,0 l/m 2 min 0 min 252 W/m 10,5 km/h (2 Bft) 100,00 %
27.03.2017 18:06 19,1 C 23,9 C 15,6 C 36 % 0 lf 1019,6 hPa 0,0 l/m 2 min 0 min 246 W/m 16,7 km/h (3 Bft) 100,00 %
27.03.2017 18:08 19,1 C 22,8 C 15,6 C 35 % 0 lf 1019,7 hPa 0,0 l/m 2 min 0 min 238 W/m 14,6 km/h (3 Bft) 97,87 %
27.03.2017 18:10 19,1 C 22,8 C 15,6 C 35 % 0 lf 1019,6 hPa 0,0 l/m 2 min 0 min 231 W/m 14,6 km/h (3 Bft) 100,00 %
27.03.2017 18:12 19,1 C 22,8 C 15,6 C 35 % 0 lf 1019,6 hPa 0,0 l/m 2 min 0 min 224 W/m 20,9 km/h (4 Bft) 100,00 %
27.03.2017 18:14 19,1 C 22,2 C 15,6 C 34 % 0 lf 1019,6 hPa 0,0 l/m 2 min 0 min 216 W/m 23,0 km/h (4 Bft) 97,87 %
27.03.2017 18:16 19,1 C 22,2 C 15,6 C 34 % 0 lf 1019,5 hPa 0,0 l/m 2 min 0 min 211 W/m 23,0 km/h (4 Bft) 97,87 %
27.03.2017 18:18 19,1 C 22,2 C 15,6 C 35 % 0 lf 1019,5 hPa 0,0 l/m 2 min 0 min 203 W/m 16,7 km/h (3 Bft) 97,83 %
27.03.2017 18:20 19,0 C 21,7 C 15,6 C 34 % 0 lf 1019,6 hPa 0,0 l/m 2 min 0 min 195 W/m 16,7 km/h (3 Bft) 97,87 %
27.03.2017 18:22 19,1 C 22,2 C 15,0 C 35 % 0 lf 1019,5 hPa 0,0 l/m 2 min 0 min 188 W/m 6,3 km/h (2 Bft) 100,00 %
27.03.2017 18:24 19,1 C 22,2 C 14,4 C 36 % 0 lf 1019,5 hPa 0,0 l/m 2 min 0 min 181 W/m 8,4 km/h (2 Bft) 100,00 %
27.03.2017 18:26 19,1 C 21,1 C 15,0 C 35 % 0 lf 1019,5 hPa 0,0 l/m 2 min 0 min 175 W/m 14,6 km/h (3 Bft) 100,00 %
27.03.2017 18:28 19,0 C 20,6 C 15,0 C 34 % 0 lf 1019,5 hPa 0,0 l/m 2 min 0 min 175 W/m 16,7 km/h (3 Bft) 97,87 %
27.03.2017 18:30 19,0 C 21,1 C 15,0 C 35 % 0 lf 1019,5 hPa 0,0 l/m 2 min 0 min 173 W/m 14,6 km/h (3 Bft) 100,00 %
27.03.2017 18:32 19,0 C 20,0 C 15,0 C 34 % 0 lf 1019,5 hPa 0,0 l/m 2 min 0 min 165 W/m 16,7 km/h (3 Bft) 100,00 %
27.03.2017 18:34 18,9 C 20,0 C 15,0 C 34 % 0 lf 1019,5 hPa 0,0 l/m 2 min 0 min 160 W/m 18,8 km/h (3 Bft) 97,87 %
27.03.2017 18:36 18,9 C 20,0 C 15,6 C 34 % 0 lf 1019,4 hPa 0,0 l/m 2 min 0 min 153 W/m 14,6 km/h (3 Bft) 97,87 %
27.03.2017 18:38 18,9 C 19,4 C 15,0 C 34 % 0 lf 1019,4 hPa 0,0 l/m 2 min 0 min 147 W/m 14,6 km/h (3 Bft) 97,87 %
27.03.2017 18:40 18,8 C 19,4 C 15,0 C 34 % 0 lf 1019,4 hPa 0,0 l/m 2 min 0 min 140 W/m 16,7 km/h (3 Bft) 100,00 %
27.03.2017 18:42 18,8 C 18,9 C 15,0 C 34 % 0 lf 1019,4 hPa 0,0 l/m 2 min 0 min 134 W/m 10,5 km/h (2 Bft) 97,83 %
27.03.2017 18:44 18,8 C 18,9 C 14,4 C 34 % 0 lf 1019,4 hPa 0,0 l/m 2 min 0 min 127 W/m 10,5 km/h (2 Bft) 100,00 %
27.03.2017 18:46 18,8 C 18,3 C 14,4 C 35 % 0 lf 1019,4 hPa 0,0 l/m 2 min 0 min 122 W/m 14,6 km/h (3 Bft) 100,00 %
27.03.2017 18:48 18,8 C 18,3 C 14,4 C 35 % 0 lf 1019,3 hPa 0,0 l/m 2 min 0 min 115 W/m 12,6 km/h (3 Bft) 100,00 %
27.03.2017 18:50 18,8 C 18,3 C 14,4 C 35 % 0 lf 1019,3 hPa 0,0 l/m 2 min 0 min 110 W/m 10,5 km/h (2 Bft) 97,87 %
27.03.2017 18:52 18,8 C 18,3 C 14,4 C 35 % 0 lf 1019,4 hPa 0,0 l/m 2 min 0 min 104 W/m 12,6 km/h (3 Bft) 100,00 %
27.03.2017 18:54 18,7 C 18,3 C 14,4 C 35 % 0 lf 1019,3 hPa 0,0 l/m 2 min 0 min 98 W/m 8,4 km/h (2 Bft) 97,87 %
27.03.2017 18:56 18,7 C 17,8 C 13,9 C 35 % 0 lf 1019,4 hPa 0,0 l/m 2 min 0 min 93 W/m 14,6 km/h (3 Bft) 95,74 %
27.03.2017 18:58 18,7 C 17,8 C 13,9 C 36 % 0 lf 1019,3 hPa 0,0 l/m 2 min 0 min 88 W/m 10,5 km/h (2 Bft) 93,62 %
27.03.2017 19:00 18,7 C 17,8 C 13,9 C 35 % 0 lf 1019,3 hPa 0,0 l/m 2 min 0 min 84 W/m 18,8 km/h (3 Bft) 100,00 %
27.03.2017 19:02 18,6 C 17,8 C 13,9 C 35 % 0 lf 1019,3 hPa 0,0 l/m 2 min 0 min 79 W/m 10,5 km/h (2 Bft) 97,87 %
27.03.2017 19:04 18,6 C 17,8 C 13,9 C 35 % 0 lf 1019,4 hPa 0,0 l/m 2 min 0 min 73 W/m 16,7 km/h (3 Bft) 97,83 %
27.03.2017 19:06 18,5 C 17,8 C 13,9 C 35 % 0 lf 1019,4 hPa 0,0 l/m 2 min 0 min 67 W/m 14,6 km/h (3 Bft) 97,87 %
27.03.2017 19:08 18,4 C 17,8 C 13,3 C 35 % 0 lf 1019,4 hPa 0,0 l/m 2 min 0 min 66 W/m 14,6 km/h (3 Bft) 97,87 %
27.03.2017 19:10 18,4 C 17,8 C 13,9 C 35 % 0 lf 1019,4 hPa 0,0 l/m 2 min 0 min 60 W/m 14,6 km/h (3 Bft) 95,74 %
27.03.2017 19:12 18,4 C 17,8 C 13,9 C 35 % 0 lf 1019,4 hPa 0,0 l/m 2 min 0 min 59 W/m 12,6 km/h (3 Bft) 93,62 %
27.03.2017 19:14 18,3 C 17,2 C 13,9 C 35 % 0 lf 1019,4 hPa 0,0 l/m 2 min 0 min 58 W/m 18,8 km/h (3 Bft) 97,87 %
27.03.2017 19:16 18,3 C 17,2 C 13,9 C 35 % 0 lf 1019,3 hPa 0,0 l/m 2 min 0 min 57 W/m 16,7 km/h (3 Bft) 97,83 %
27.03.2017 19:18 18,2 C 17,2 C 13,3 C 35 % 0 lf 1019,3 hPa 0,0 l/m 2 min 0 min 55 W/m 14,6 km/h (3 Bft) 95,74 %
27.03.2017 19:20 18,2 C 17,2 C 13,9 C 35 % 0 lf 1019,3 hPa 0,0 l/m 2 min 0 min 54 W/m 16,7 km/h (3 Bft) 95,74 %
27.03.2017 19:22 18,1 C 17,2 C 13,3 C 36 % 0 lf 1019,4 hPa 0,0 l/m 2 min 0 min 44 W/m 18,8 km/h (3 Bft) 95,74 %
27.03.2017 19:24 18,1 C 17,2 C 12,8 C 36 % 0 lf 1019,4 hPa 0,0 l/m 2 min 0 min 42 W/m 10,5 km/h (2 Bft) 93,62 %
27.03.2017 19:26 18,0 C 17,2 C 12,8 C 36 % 0 lf 1019,3 hPa 0,0 l/m 2 min 0 min 42 W/m 10,5 km/h (2 Bft) 93,62 %
27.03.2017 19:28 17,9 C 16,7 C 12,2 C 36 % 0 lf 1019,3 hPa 0,0 l/m 2 min 0 min 40 W/m 8,4 km/h (2 Bft) 93,48 %
27.03.2017 19:30 17,9 C 16,7 C 12,2 C 37 % 0 lf 1019,4 hPa 0,0 l/m 2 min 0 min 40 W/m 6,3 km/h (2 Bft) 95,74 %
27.03.2017 19:32 17,9 C 16,7 C 12,2 C 37 % 0 lf 1019,4 hPa 0,0 l/m 2 min 0 min 38 W/m 8,4 km/h (2 Bft) 93,62 %
27.03.2017 19:34 17,8 C 16,7 C 11,7 C 37 % 0 lf 1019,3 hPa 0,0 l/m 2 min 0 min 38 W/m 6,3 km/h (2 Bft) 93,62 %
27.03.2017 19:36 17,8 C 16,7 C 11,7 C 37 % 0 lf 1019,4 hPa 0,0 l/m 2 min 0 min 37 W/m 6,3 km/h (2 Bft) 91,49 %
27.03.2017 19:38 17,7 C 16,1 C 11,7 C 37 % 0 lf 1019,4 hPa 0,0 l/m 2 min 0 min 37 W/m 8,4 km/h (2 Bft) 91,49 %
27.03.2017 19:40 17,7 C 16,1 C 11,1 C 38 % 0 lf 1019,4 hPa 0,0 l/m 2 min 0 min 35 W/m 8,4 km/h (2 Bft) 93,48 %
27.03.2017 19:42 17,6 C 16,1 C 10,6 C 37 % 0 lf 1019,4 hPa 0,0 l/m 2 min 0 min 35 W/m 4,2 km/h (1 Bft) 93,62 %
27.03.2017 19:44 17,6 C 16,1 C 10,0 C 38 % 0 lf 1019,4 hPa 0,0 l/m 2 min 0 min 22 W/m 4,2 km/h (1 Bft) 85,11 %
27.03.2017 19:46 17,5 C 15,6 C 10,0 C 38 % 0 lf 1019,5 hPa 0,0 l/m 0 min 0 min 14 W/m 4,2 km/h (1 Bft) 93,62 %
27.03.2017 19:48 17,4 C 15,6 C 10,0 C 38 % 0 lf 1019,5 hPa 0,0 l/m 0 min 0 min 14 W/m 4,2 km/h (1 Bft) 95,74 %
27.03.2017 19:50 17,3 C 15,0 C 9,4 C 39 % 0 lf 1019,5 hPa 0,0 l/m 0 min 0 min 12 W/m 4,2 km/h (1 Bft) 91,49 %
27.03.2017 19:52 17,2 C 14,4 C 8,9 C 40 % 0 lf 1019,5 hPa 0,0 l/m 0 min 0 min 11 W/m 2,1 km/h (1 Bft) 91,30 %
27.03.2017 19:54 17,1 C 14,4 C 8,9 C 40 % 0 lf 1019,5 hPa 0,0 l/m 0 min 0 min 11 W/m 2,1 km/h (1 Bft) 93,62 %
27.03.2017 19:56 17,0 C 13,9 C 8,9 C 40 % 0 lf 1019,5 hPa 0,0 l/m 0 min 0 min 10 W/m 4,2 km/h (1 Bft) 91,49 %
27.03.2017 19:58 16,9 C 13,9 C 8,3 C 41 % 0 lf 1019,5 hPa 0,0 l/m 0 min 0 min 9 W/m 0,0 km/h (0 Bft) 91,49 %
27.03.2017 20:00 16,8 C 13,3 C 8,3 C 42 % 0 lf 1019,6 hPa 0,0 l/m 0 min 0 min 7 W/m 0,0 km/h (0 Bft) 97,87 %
27.03.2017 20:02 16,6 C 13,3 C 7,8 C 42 % 0 lf 1019,5 hPa 0,0 l/m 0 min 0 min 7 W/m 2,1 km/h (1 Bft) 91,49 %
27.03.2017 20:04 16,5 C 12,8 C 7,8 C 43 % 0 lf 1019,6 hPa 0,0 l/m 0 min 0 min 7 W/m 4,2 km/h (1 Bft) 97,83 %
27.03.2017 20:06 16,3 C 12,8 C 7,8 C 43 % 0 lf 1019,6 hPa 0,0 l/m 0 min 0 min 7 W/m 4,2 km/h (1 Bft) 95,74 %
27.03.2017 20:08 16,2 C 12,8 C 7,8 C 44 % 0 lf 1019,6 hPa 0,0 l/m 0 min 0 min 6 W/m 6,3 km/h (2 Bft) 91,49 %
27.03.2017 20:10 16,1 C 12,2 C 7,8 C 45 % 0 lf 1019,6 hPa 0,0 l/m 0 min 0 min 7 W/m 4,2 km/h (1 Bft) 95,74 %
27.03.2017 20:12 15,9 C 12,2 C 7,2 C 44 % 0 lf 1019,7 hPa 0,0 l/m 0 min 0 min 10 W/m 6,3 km/h (2 Bft) 97,87 %
27.03.2017 20:14 15,8 C 12,8 C 7,2 C 44 % 0 lf 1019,7 hPa 0,0 l/m 0 min 0 min 0 W/m 6,3 km/h (2 Bft) 93,62 %
27.03.2017 20:16 15,7 C 13,3 C 7,2 C 43 % 0 lf 1019,6 hPa 0,0 l/m 0 min 0 min 0 W/m 6,3 km/h (2 Bft) 100,00 %
27.03.2017 20:18 15,6 C 13,3 C 7,2 C 44 % 0 lf 1019,7 hPa 0,0 l/m 0 min 0 min 3 W/m 6,3 km/h (2 Bft) 95,74 %
27.03.2017 20:20 15,4 C 13,3 C 7,2 C 44 % 0 lf 1019,7 hPa 0,0 l/m 0 min 0 min 0 W/m 6,3 km/h (2 Bft) 97,87 %
27.03.2017 20:22 15,3 C 12,8 C 7,2 C 44 % 0 lf 1019,7 hPa 0,0 l/m 0 min 0 min 3 W/m 6,3 km/h (2 Bft) 95,74 %
27.03.2017 20:24 15,2 C 12,2 C 6,7 C 44 % 0 lf 1019,7 hPa 0,0 l/m 0 min 0 min 5 W/m 4,2 km/h (1 Bft) 97,87 %
27.03.2017 20:26 15,1 C 12,2 C 6,7 C 45 % 0 lf 1019,7 hPa 0,0 l/m 0 min 0 min 0 W/m 2,1 km/h (1 Bft) 97,83 %
27.03.2017 20:28 14,9 C 12,2 C 6,7 C 45 % 0 lf 1019,7 hPa 0,0 l/m 0 min 0 min 5 W/m 2,1 km/h (1 Bft) 95,74 %
27.03.2017 20:30 14,8 C 12,2 C 6,7 C 45 % 0 lf 1019,8 hPa 0,0 l/m 0 min 0 min 2 W/m 0,0 km/h (0 Bft) 97,87 %
27.03.2017 20:32 14,7 C 12,2 C 6,7 C 46 % 0 lf 1019,8 hPa 0,0 l/m 0 min 0 min 0 W/m 0,0 km/h (0 Bft) 93,62 %
27.03.2017 20:34 14,6 C 12,2 C 6,7 C 46 % 0 lf 1019,7 hPa 0,0 l/m 0 min 0 min 0 W/m 0,0 km/h (0 Bft) 97,87 %
27.03.2017 20:36 14,4 C 11,7 C 6,1 C 47 % 0 lf 1019,7 hPa 0,0 l/m 0 min 0 min 3 W/m 2,1 km/h (1 Bft) 91,49 %
27.03.2017 20:38 14,3 C 11,1 C 6,1 C 48 % 0 lf 1019,8 hPa 0,0 l/m 0 min 0 min 3 W/m 0,0 km/h (0 Bft) 97,87 %
27.03.2017 20:40 14,2 C 11,1 C 6,1 C 49 % 0 lf 1019,8 hPa 0,0 l/m 0 min 0 min 0 W/m 0,0 km/h (0 Bft) 95,65 %
27.03.2017 20:42 14,2 C 11,1 C 6,1 C 49 % 0 lf 1019,9 hPa 0,0 l/m 0 min 0 min 0 W/m 0,0 km/h (0 Bft) 97,87 %
27.03.2017 20:44 14,0 C 10,6 C 6,1 C 49 % 0 lf 1019,9 hPa 0,0 l/m 0 min 0 min 0 W/m 0,0 km/h (0 Bft) 95,74 %
27.03.2017 20:46 13,9 C 10,6 C 6,1 C 50 % 0 lf 1019,9 hPa 0,0 l/m 0 min 0 min 0 W/m 0,0 km/h (0 Bft) 97,87 %
27.03.2017 20:48 13,7 C 10,6 C 6,1 C 50 % 0 lf 1019,9 hPa 0,0 l/m 0 min 0 min 0 W/m 2,1 km/h (1 Bft) 95,74 %
27.03.2017 20:50 13,6 C 10,6 C 5,6 C 50 % 0 lf 1019,9 hPa 0,0 l/m 0 min 0 min 0 W/m 4,2 km/h (1 Bft) 97,83 %
27.03.2017 20:52 13,5 C 10,0 C 5,6 C 51 % 0 lf 1019,9 hPa 0,0 l/m 0 min 0 min 0 W/m 4,2 km/h (1 Bft) 97,87 %
27.03.2017 20:54 13,3 C 10,0 C 5,6 C 51 % 0 lf 1020,0 hPa 0,0 l/m 0 min 0 min 3 W/m 4,2 km/h (1 Bft) 97,87 %
27.03.2017 20:56 13,2 C 10,0 C 5,6 C 52 % 0 lf 1020,0 hPa 0,0 l/m 0 min 0 min 0 W/m 4,2 km/h (1 Bft) 97,87 %
27.03.2017 20:58 13,1 C 9,4 C 5,6 C 52 % 0 lf 1019,9 hPa 0,0 l/m 0 min 0 min 0 W/m 4,2 km/h (1 Bft) 97,87 %
27.03.2017 21:00 13,0 C 9,4 C 5,6 C 53 % 0 lf 1020,0 hPa 0,0 l/m 0 min 0 min 0 W/m 4,2 km/h (1 Bft) 91,49 %
27.03.2017 21:02 12,8 C 9,4 C 5,6 C 53 % 0 lf 1020,0 hPa 0,0 l/m 0 min 0 min 0 W/m 4,2 km/h (1 Bft) 97,83 %
27.03.2017 21:04 12,7 C 9,4 C 5,6 C 53 % 0 lf 1020,0 hPa 0,0 l/m 0 min 0 min 0 W/m 4,2 km/h (1 Bft) 95,74 %
27.03.2017 21:06 12,6 C 9,4 C 5,6 C 53 % 0 lf 1020,0 hPa 0,0 l/m 0 min 0 min 0 W/m 4,2 km/h (1 Bft) 95,74 %
27.03.2017 21:08 12,5 C 9,4 C 5,6 C 54 % 0 lf 1020,0 hPa 0,0 l/m 0 min 0 min 0 W/m 6,3 km/h (2 Bft) 97,87 %
27.03.2017 21:10 12,4 C 9,4 C 5,6 C 54 % 0 lf 1020,0 hPa 0,0 l/m 0 min 0 min 0 W/m 4,2 km/h (1 Bft) 95,74 %
27.03.2017 21:12 12,3 C 9,4 C 5,6 C 54 % 0 lf 1020,0 hPa 0,0 l/m 0 min 0 min 0 W/m 4,2 km/h (1 Bft) 100,00 %
27.03.2017 21:14 12,2 C 9,4 C 5,6 C 54 % 0 lf 1020,1 hPa 0,0 l/m 0 min 0 min 0 W/m 2,1 km/h (1 Bft) 100,00 %
27.03.2017 21:16 12,1 C 9,4 C 5,6 C 54 % 0 lf 1020,1 hPa 0,0 l/m 0 min 0 min 0 W/m 0,0 km/h (0 Bft) 100,00 %
27.03.2017 21:18 12,0 C 9,4 C 5,6 C 55 % 0 lf 1020,1 hPa 0,0 l/m 0 min 0 min 0 W/m 0,0 km/h (0 Bft) 97,87 %
27.03.2017 21:20 11,9 C 10,0 C 5,6 C 55 % 0 lf 1020,1 hPa 0,0 l/m 0 min 0 min 0 W/m 6,3 km/h (2 Bft) 97,87 %
27.03.2017 21:22 11,8 C 9,4 C 5,6 C 55 % 0 lf 1020,1 hPa 0,0 l/m 0 min 0 min 0 W/m 4,2 km/h (1 Bft) 100,00 %
27.03.2017 21:24 11,7 C 9,4 C 5,6 C 55 % 0 lf 1020,1 hPa 0,0 l/m 0 min 0 min 0 W/m 4,2 km/h (1 Bft) 100,00 %
27.03.2017 21:26 11,7 C 8,9 C 5,0 C 55 % 0 lf 1020,1 hPa 0,0 l/m 0 min 0 min 0 W/m 4,2 km/h (1 Bft) 100,00 %
27.03.2017 21:28 11,6 C 8,9 C 5,0 C 55 % 0 lf 1020,2 hPa 0,0 l/m 0 min 0 min 0 W/m 6,3 km/h (2 Bft) 95,74 %
27.03.2017 21:30 11,5 C 8,9 C 5,0 C 56 % 0 lf 1020,2 hPa 0,0 l/m 0 min 0 min 0 W/m 6,3 km/h (2 Bft) 97,87 %
27.03.2017 21:32 11,4 C 9,4 C 5,0 C 56 % 0 lf 1020,1 hPa 0,0 l/m 0 min 0 min 0 W/m 8,4 km/h (2 Bft) 100,00 %
27.03.2017 21:34 11,3 C 9,4 C 5,0 C 56 % 0 lf 1020,2 hPa 0,0 l/m 0 min 0 min 0 W/m 8,4 km/h (2 Bft) 97,87 %
27.03.2017 21:36 11,3 C 9,4 C 5,0 C 56 % 0 lf 1020,3 hPa 0,0 l/m 0 min 0 min 0 W/m 8,4 km/h (2 Bft) 93,62 %
27.03.2017 21:38 11,2 C 10,0 C 5,0 C 55 % 0 lf 1020,2 hPa 0,0 l/m 0 min 0 min 0 W/m 6,3 km/h (2 Bft) 97,83 %
27.03.2017 21:40 11,1 C 9,4 C 5,0 C 55 % 0 lf 1020,2 hPa 0,0 l/m 0 min 0 min 0 W/m 6,3 km/h (2 Bft) 93,48 %
27.03.2017 21:42 11,1 C 9,4 C 5,0 C 55 % 0 lf 1020,3 hPa 0,0 l/m 0 min 0 min 0 W/m 6,3 km/h (2 Bft) 97,83 %
27.03.2017 21:44 11,0 C 10,0 C 5,0 C 55 % 0 lf 1020,3 hPa 0,0 l/m 0 min 0 min 4 W/m 8,4 km/h (2 Bft) 95,74 %
27.03.2017 21:46 10,9 C 10,0 C 5,0 C 55 % 0 lf 1020,3 hPa 0,0 l/m 0 min 0 min 0 W/m 8,4 km/h (2 Bft) 97,87 %
27.03.2017 21:48 10,8 C 10,0 C 5,0 C 55 % 0 lf 1020,3 hPa 0,0 l/m 0 min 0 min 0 W/m 8,4 km/h (2 Bft) 97,87 %
27.03.2017 21:50 10,8 C 10,0 C 5,0 C 54 % 0 lf 1020,3 hPa 0,0 l/m 0 min 0 min 0 W/m 8,4 km/h (2 Bft) 97,87 %
27.03.2017 21:52 10,7 C 10,0 C 5,0 C 54 % 0 lf 1020,3 hPa 0,0 l/m 0 min 0 min 1 W/m 10,5 km/h (2 Bft) 97,87 %
27.03.2017 21:54 10,7 C 10,6 C 5,0 C 54 % 0 lf 1020,3 hPa 0,0 l/m 0 min 0 min 0 W/m 10,5 km/h (2 Bft) 97,83 %
27.03.2017 21:56 10,7 C 11,1 C 5,6 C 54 % 0 lf 1020,3 hPa 0,0 l/m 0 min 0 min 0 W/m 8,4 km/h (2 Bft) 97,87 %
27.03.2017 21:58 10,6 C 10,6 C 5,6 C 53 % 0 lf 1020,4 hPa 0,0 l/m 0 min 0 min 0 W/m 10,5 km/h (2 Bft) 100,00 %
27.03.2017 22:00 10,6 C 10,6 C 5,6 C 54 % 0 lf 1020,3 hPa 0,0 l/m 0 min 0 min 0 W/m 10,5 km/h (2 Bft) 97,87 %
27.03.2017 22:02 10,6 C 10,6 C 5,6 C 53 % 0 lf 1020,3 hPa 0,0 l/m 0 min 0 min 0 W/m 10,5 km/h (2 Bft) 97,87 %
27.03.2017 22:04 10,5 C 11,1 C 5,6 C 53 % 0 lf 1020,3 hPa 0,0 l/m 0 min 0 min 0 W/m 10,5 km/h (2 Bft) 100,00 %
27.03.2017 22:06 10,5 C 11,7 C 6,1 C 53 % 0 lf 1020,3 hPa 0,0 l/m 0 min 0 min 0 W/m 12,6 km/h (3 Bft) 100,00 %
27.03.2017 22:08 10,5 C 11,7 C 6,7 C 53 % 0 lf 1020,3 hPa 0,0 l/m 0 min 0 min 3 W/m 14,6 km/h (3 Bft) 95,74 %
27.03.2017 22:10 10,5 C 12,2 C 6,7 C 53 % 0 lf 1020,3 hPa 0,0 l/m 0 min 0 min 0 W/m 10,5 km/h (2 Bft) 97,87 %
27.03.2017 22:12 10,6 C 12,2 C 7,2 C 52 % 0 lf 1020,3 hPa 0,0 l/m 0 min 0 min 0 W/m 10,5 km/h (2 Bft) 97,87 %
27.03.2017 22:14 10,6 C 12,2 C 7,2 C 52 % 0 lf 1020,3 hPa 0,0 l/m 0 min 0 min 0 W/m 12,6 km/h (3 Bft) 100,00 %
27.03.2017 22:16 10,7 C 12,2 C 7,2 C 52 % 0 lf 1020,3 hPa 0,0 l/m 0 min 0 min 3 W/m 10,5 km/h (2 Bft) 97,83 %
27.03.2017 22:18 10,7 C 12,2 C 6,7 C 52 % 0 lf 1020,3 hPa 0,0 l/m 0 min 0 min 5 W/m 8,4 km/h (2 Bft) 93,62 %
27.03.2017 22:20 10,7 C 12,2 C 6,7 C 52 % 0 lf 1020,3 hPa 0,0 l/m 0 min 0 min 5 W/m 10,5 km/h (2 Bft) 100,00 %
27.03.2017 22:22 10,8 C 12,2 C 7,2 C 52 % 0 lf 1020,3 hPa 0,0 l/m 0 min 0 min 5 W/m 10,5 km/h (2 Bft) 100,00 %
27.03.2017 22:24 10,8 C 12,2 C 7,2 C 52 % 0 lf 1020,3 hPa 0,0 l/m 0 min 0 min 1 W/m 10,5 km/h (2 Bft) 100,00 %
27.03.2017 22:26 10,9 C 12,2 C 7,2 C 52 % 0 lf 1020,3 hPa 0,0 l/m 0 min 0 min 2 W/m 10,5 km/h (2 Bft) 100,00 %
27.03.2017 22:28 11,0 C 12,2 C 7,2 C 51 % 0 lf 1020,3 hPa 0,0 l/m 0 min 0 min 3 W/m 10,5 km/h (2 Bft) 100,00 %
27.03.2017 22:30 11,1 C 12,2 C 7,2 C 51 % 0 lf 1020,3 hPa 0,0 l/m 0 min 0 min 5 W/m 10,5 km/h (2 Bft) 97,87 %
27.03.2017 22:32 11,1 C 12,2 C 7,8 C 51 % 0 lf 1020,3 hPa 0,0 l/m 0 min 0 min 5 W/m 10,5 km/h (2 Bft) 97,87 %
27.03.2017 22:34 11,2 C 12,2 C 7,8 C 51 % 0 lf 1020,4 hPa 0,0 l/m 0 min 0 min 5 W/m 8,4 km/h (2 Bft) 97,87 %
27.03.2017 22:36 11,3 C 12,2 C 7,8 C 51 % 0 lf 1020,4 hPa 0,0 l/m 0 min 0 min 5 W/m 12,6 km/h (3 Bft) 93,62 %
27.03.2017 22:38 11,3 C 12,2 C 7,2 C 51 % 0 lf 1020,4 hPa 0,0 l/m 0 min 0 min 5 W/m 10,5 km/h (2 Bft) 93,62 %
27.03.2017 22:40 11,3 C 12,2 C 7,2 C 51 % 0 lf 1020,3 hPa 0,0 l/m 0 min 0 min 5 W/m 8,4 km/h (2 Bft) 97,83 %
27.03.2017 22:42 11,4 C 12,2 C 7,2 C 50 % 0 lf 1020,3 hPa 0,0 l/m 0 min 0 min 0 W/m 8,4 km/h (2 Bft) 97,87 %
27.03.2017 22:44 11,4 C 12,2 C 6,7 C 50 % 0 lf 1020,3 hPa 0,0 l/m 0 min 0 min 0 W/m 10,5 km/h (2 Bft) 97,87 %
27.03.2017 22:46 11,5 C 12,2 C 6,7 C 50 % 0 lf 1020,4 hPa 0,0 l/m 0 min 0 min 0 W/m 6,3 km/h (2 Bft) 97,87 %
27.03.2017 22:48 11,5 C 11,7 C 6,7 C 50 % 0 lf 1020,4 hPa 0,0 l/m 0 min 0 min 0 W/m 8,4 km/h (2 Bft) 97,87 %
27.03.2017 22:50 11,5 C 11,7 C 6,7 C 51 % 0 lf 1020,3 hPa 0,0 l/m 0 min 0 min 0 W/m 6,3 km/h (2 Bft) 95,74 %
27.03.2017 22:52 11,6 C 11,7 C 6,1 C 50 % 0 lf 1020,4 hPa 0,0 l/m 0 min 0 min 0 W/m 10,5 km/h (2 Bft) 93,48 %
27.03.2017 22:54 11,6 C 11,7 C 6,1 C 50 % 0 lf 1020,4 hPa 0,0 l/m 0 min 0 min 0 W/m 8,4 km/h (2 Bft) 91,49 %
27.03.2017 22:56 11,6 C 11,1 C 5,6 C 50 % 0 lf 1020,4 hPa 0,0 l/m 0 min 0 min 0 W/m 6,3 km/h (2 Bft) 91,49 %
27.03.2017 22:58 11,6 C 11,1 C 5,6 C 50 % 0 lf 1020,4 hPa 0,0 l/m 0 min 0 min 0 W/m 6,3 km/h (2 Bft) 93,62 %
27.03.2017 23:00 11,6 C 11,1 C 5,6 C 50 % 0 lf 1020,3 hPa 0,0 l/m 0 min 0 min 0 W/m 8,4 km/h (2 Bft) 91,49 %
27.03.2017 23:02 11,6 C 11,1 C 5,6 C 51 % 0 lf 1020,3 hPa 0,0 l/m 0 min 0 min 4 W/m 4,2 km/h (1 Bft) 95,74 %
27.03.2017 23:04 11,6 C 11,7 C 5,6 C 51 % 0 lf 1020,3 hPa 0,0 l/m 0 min 0 min 0 W/m 8,4 km/h (2 Bft) 93,48 %
27.03.2017 23:06 11,5 C 11,7 C 6,1 C 51 % 0 lf 1020,3 hPa 0,0 l/m 0 min 0 min 0 W/m 8,4 km/h (2 Bft) 91,49 %
27.03.2017 23:08 11,5 C 11,7 C 6,1 C 51 % 0 lf 1020,3 hPa 0,0 l/m 0 min 0 min 0 W/m 6,3 km/h (2 Bft) 89,36 %
27.03.2017 23:10 11,5 C 11,7 C 6,1 C 51 % 0 lf 1020,3 hPa 0,0 l/m 0 min 0 min 0 W/m 6,3 km/h (2 Bft) 91,49 %
27.03.2017 23:12 11,5 C 11,1 C 5,6 C 51 % 0 lf 1020,3 hPa 0,0 l/m 0 min 0 min 0 W/m 8,4 km/h (2 Bft) 93,62 %
27.03.2017 23:14 11,5 C 11,1 C 5,6 C 51 % 0 lf 1020,3 hPa 0,0 l/m 0 min 0 min 0 W/m 10,5 km/h (2 Bft) 91,49 %
27.03.2017 23:16 11,5 C 10,6 C 5,6 C 51 % 0 lf 1020,3 hPa 0,0 l/m 0 min 0 min 0 W/m 8,4 km/h (2 Bft) 93,48 %
27.03.2017 23:18 11,4 C 10,6 C 5,6 C 51 % 0 lf 1020,2 hPa 0,0 l/m 0 min 0 min 0 W/m 8,4 km/h (2 Bft) 93,62 %
27.03.2017 23:20 11,4 C 11,1 C 5,6 C 51 % 0 lf 1020,3 hPa 0,0 l/m 0 min 0 min 5 W/m 6,3 km/h (2 Bft) 95,74 %
27.03.2017 23:22 11,4 C 11,1 C 5,6 C 51 % 0 lf 1020,3 hPa 0,0 l/m 0 min 0 min 5 W/m 8,4 km/h (2 Bft) 91,49 %
27.03.2017 23:24 11,4 C 11,1 C 5,6 C 51 % 0 lf 1020,3 hPa 0,0 l/m 0 min 0 min 5 W/m 8,4 km/h (2 Bft) 93,62 %
27.03.2017 23:26 11,4 C 11,1 C 5,6 C 51 % 0 lf 1020,3 hPa 0,0 l/m 0 min 0 min 5 W/m 6,3 km/h (2 Bft) 89,36 %
27.03.2017 23:28 11,3 C 10,6 C 5,6 C 51 % 0 lf 1020,2 hPa 0,0 l/m 0 min 0 min 0 W/m 6,3 km/h (2 Bft) 91,30 %
27.03.2017 23:30 11,3 C 10,6 C 5,6 C 52 % 0 lf 1020,3 hPa 0,0 l/m 0 min 0 min 0 W/m 8,4 km/h (2 Bft) 85,11 %
27.03.2017 23:32 11,3 C 10,6 C 5,6 C 52 % 0 lf 1020,3 hPa 0,0 l/m 0 min 0 min 0 W/m 6,3 km/h (2 Bft) 93,62 %
27.03.2017 23:34 11,2 C 10,6 C 5,6 C 52 % 0 lf 1020,3 hPa 0,0 l/m 0 min 0 min 0 W/m 6,3 km/h (2 Bft) 91,49 %
27.03.2017 23:36 11,2 C 10,6 C 5,6 C 52 % 0 lf 1020,2 hPa 0,0 l/m 0 min 0 min 0 W/m 8,4 km/h (2 Bft) 91,49 %
27.03.2017 23:38 11,2 C 11,1 C 5,6 C 52 % 0 lf 1020,3 hPa 0,0 l/m 0 min 0 min 0 W/m 10,5 km/h (2 Bft) 93,48 %
27.03.2017 23:40 11,1 C 11,1 C 5,6 C 52 % 0 lf 1020,2 hPa 0,0 l/m 0 min 0 min 0 W/m 10,5 km/h (2 Bft) 93,62 %
27.03.2017 23:42 11,1 C 11,1 C 5,6 C 52 % 0 lf 1020,3 hPa 0,0 l/m 0 min 0 min 0 W/m 8,4 km/h (2 Bft) 93,62 %
27.03.2017 23:44 11,1 C 11,1 C 5,6 C 52 % 0 lf 1020,3 hPa 0,0 l/m 0 min 0 min 0 W/m 8,4 km/h (2 Bft) 91,49 %
27.03.2017 23:46 11,1 C 11,1 C 6,1 C 52 % 0 lf 1020,2 hPa 0,0 l/m 0 min 0 min 0 W/m 10,5 km/h (2 Bft) 93,62 %
27.03.2017 23:48 11,0 C 11,1 C 6,7 C 53 % 0 lf 1020,3 hPa 0,0 l/m 0 min 0 min 0 W/m 10,5 km/h (2 Bft) 89,36 %
27.03.2017 23:50 11,0 C 11,1 C 6,7 C 53 % 0 lf 1020,3 hPa 0,0 l/m 0 min 0 min 0 W/m 10,5 km/h (2 Bft) 95,65 %
27.03.2017 23:52 11,0 C 11,1 C 6,7 C 53 % 0 lf 1020,2 hPa 0,0 l/m 0 min 0 min 0 W/m 10,5 km/h (2 Bft) 97,87 %
27.03.2017 23:54 10,9 C 11,1 C 6,7 C 53 % 0 lf 1020,2 hPa 0,0 l/m 0 min 0 min 0 W/m 8,4 km/h (2 Bft) 95,74 %
27.03.2017 23:56 10,9 C 11,1 C 6,7 C 53 % 0 lf 1020,2 hPa 0,0 l/m 0 min 0 min 0 W/m 6,3 km/h (2 Bft) 95,74 %
27.03.2017 23:58 10,9 C 11,1 C 6,7 C 53 % 0 lf 1020,2 hPa 0,0 l/m 0 min 0 min 0 W/m 8,4 km/h (2 Bft) 100,00 %
_ Min-Zeit 06:14 03:24 06:00 17:14 00:00 18:48 - - - - 01:38 05:28
Minimum _ 3,1 C 2,8 C 0,0 C 34 % 0 lf 1019,3 hPa - - - - 0,0 km/h (0 Bft) 63,04 %
_ Max-Zeit 17:34 15:46 12:08 07:20 00:00 10:26 00:00 07:38 00:00 14:26 13:44 00:14
Maximum _ 19,1 C 25,6 C 21,1 C 90 % 0 lf 1023,8 hPa 0,0 l/m 2 min 0 min 860 W/m 41,8 km/h
SO (6 Bft)
100,00 %
Durchschnitt _ 11,2 C 13,1 C 8,7 C 61 % 0 lf 1022,0 hPa #0,0 l/m #12:07 h #0 min. 354 W/m 12,1 km/h (2 Bft) 93,46 %
© 2017 W. Hausmann